GFSFLT2_sfc_thetae_000.txt.gz
Theta_e
336 339 340 341 340 341 341 341 341 340 339 338 337 336 335 333 332 331 330 329 328 328 327 326 326 328 329 330 330 331 328 329
335 336 336 336 337 338 339 339 339 338 338 337 337 336 335 333 332 330 328 327 327 326 325 325 325 326 328 329 328 328 324 327
335 335 336 338 336 336 338 339 338 338 337 336 334 336 334 331 331 331 330 329 328 326 325 324 325 326 328 328 328 321 324 322
337 336 336 334 330 335 337 335 336 337 336 336 336 334 333 331 332 332 332 331 330 329 327 327 326 322 320 326 323 322 320 319
337 340 339 336 333 333 333 334 334 337 337 335 334 334 335 333 333 331 331 330 330 327 325 323 324 321 317 317 317 317 317 318
337 338 339 336 335 331 333 332 332 332 333 334 333 332 331 328 327 324 323 323 322 323 322 323 322 319 314 314 314 315 312 312
334 337 337 338 334 336 335 333 333 332 332 332 331 329 329 328 325 323 322 321 320 320 319 319 318 316 313 311 312 313 313 312
337 337 337 333 332 333 335 334 332 332 329 326 328 327 327 325 323 323 321 321 320 318 318 319 318 316 313 312 311 312 311 313
335 336 331 330 331 332 332 326 324 325 325 326 325 325 325 325 323 323 323 323 321 320 320 319 318 318 314 313 312 313 312 312
329 335 331 328 331 327 327 328 326 325 326 325 325 325 325 324 323 322 323 324 321 320 318 317 316 315 314 314 311 311 312 312
331 330 328 326 327 326 326 326 325 323 322 323 322 322 324 322 321 322 323 321 320 320 318 317 315 315 315 313 313 311 310 312
330 328 325 325 326 326 323 322 322 322 321 319 321 319 320 320 319 320 322 318 317 317 318 316 315 315 316 315 314 314 313 310
327 326 326 324 323 319 317 315 317 318 318 318 317 318 317 316 315 315 314 313 314 314 312 311 311 313 313 312 312 313 315 314
323 322 320 318 317 317 317 317 316 316 317 316 317 316 315 312 313 312 312 310 310 311 311 309 308 309 307 307 302 305 309 311
317 316 315 316 317 315 314 314 313 312 312 312 313 314 313 312 312 312 311 309 307 307 308 306 304 305 306 303 299 298 302 306
316 316 315 314 315 313 312 310 309 312 314 312 312 312 311 310 309 309 309 308 306 307 306 306 304 301 303 306 302 299 296 296
317 315 314 314 313 312 311 312 311 311 310 309 309 309 308 308 307 305 306 305 305 306 304 303 303 301 299 298 296 296 296 293
316 314 313 314 313 313 311 308 308 307 307 305 304 304 304 305 305 305 305 304 303 303 303 301 298 298 298 297 295 294 293 292
315 314 312 313 311 310 309 309 308 306 304 302 301 301 301 301 303 303 302 302 303 303 302 301 298 295 295 295 295 293 293 293
315 313 311 312 312 310 310 309 305 304 303 301 300 300 301 302 302 302 301 300 299 299 297 298 297 297 297 296 294 293 294 293

GFSFLT2_sfc_thetae_003.txt.gz
Theta_e
338 341 341 340 339 339 339 340 340 340 339 339 338 336 335 335 333 331 329 328 328 327 327 327 327 328 330 330 329 329 325 325
334 334 335 333 336 337 338 338 337 337 337 337 336 335 333 334 333 332 331 329 327 327 327 327 326 328 328 329 329 329 320 322
331 331 331 332 332 337 337 338 337 336 336 335 333 332 331 330 331 331 331 331 330 330 329 328 327 326 327 328 328 323 320 322
328 328 332 331 333 332 332 334 334 334 334 332 331 330 329 329 329 331 331 331 331 331 330 328 327 320 317 323 320 321 318 318
329 328 327 326 328 329 331 330 331 332 331 328 329 327 327 326 326 328 326 330 327 328 326 323 321 319 316 311 312 311 312 312
330 330 327 326 322 322 323 326 326 329 330 329 327 324 321 320 318 319 321 323 323 322 320 319 319 319 315 309 308 308 310 309
330 329 328 327 324 325 325 325 325 324 326 327 324 322 320 319 319 317 316 315 315 315 315 315 316 315 312 309 307 307 308 309
329 329 330 329 324 325 325 323 323 325 322 322 323 320 320 319 317 318 316 316 316 314 313 313 314 315 313 310 307 306 308 308
329 333 332 325 323 324 325 316 318 317 318 318 319 319 318 318 317 318 318 318 318 316 315 315 314 316 313 311 309 308 308 308
330 330 330 325 321 319 320 319 317 318 317 318 318 318 318 316 315 314 317 318 317 315 314 314 313 312 313 313 310 309 308 309
325 322 325 323 319 318 318 317 316 315 314 314 313 316 316 314 314 314 315 316 314 314 314 313 312 311 312 311 310 309 308 310
324 323 322 317 317 315 314 312 312 311 310 309 310 313 313 311 311 311 311 310 309 309 308 309 308 309 312 313 311 313 312 309
317 316 312 313 311 310 309 307 308 308 309 311 311 310 310 309 308 309 308 307 306 306 307 306 306 307 304 306 306 308 308 309
311 311 310 310 310 309 308 307 308 307 308 309 310 310 309 308 307 307 306 305 304 303 303 303 302 304 301 301 298 302 304 306
308 308 308 309 309 307 306 305 305 306 308 308 309 309 307 306 305 304 304 304 302 301 303 301 299 301 301 300 295 293 297 301
307 308 307 308 307 305 304 304 304 306 306 305 306 305 305 305 304 302 303 302 301 301 304 300 300 298 299 301 298 295 291 290
306 306 307 307 305 304 305 303 303 304 304 301 300 301 302 303 302 301 301 301 299 299 299 298 298 297 296 295 294 293 296 293
305 305 305 306 305 304 304 301 301 301 298 297 298 298 300 300 301 300 300 299 298 298 298 297 296 297 298 297 296 293 290 289
305 306 306 305 304 303 302 301 299 297 296 295 296 297 297 298 298 297 297 297 297 296 295 295 294 293 292 292 292 291 292 291
306 306 306 307 304 302 301 300 299 298 298 298 298 297 296 298 297 297 297 296 295 294 293 293 294 293 292 293 292 293 291 290

GFSFLT2_sfc_thetae_006.txt.gz
Theta_e
342 342 342 340 339 338 339 340 340 339 339 338 337 335 335 334 333 331 329 327 327 326 327 327 326 327 328 327 327 329 323 319
334 335 335 334 335 336 337 337 336 337 337 335 334 333 334 334 333 332 331 330 329 329 329 328 327 327 327 327 327 327 320 318
330 330 330 331 331 335 336 337 335 334 335 334 332 329 327 328 330 330 332 330 330 330 331 329 327 326 326 327 327 320 319 318
328 327 328 329 333 332 331 333 331 331 331 330 329 328 328 328 329 331 331 330 331 331 331 330 328 319 319 320 312 315 315 313
328 329 329 326 327 327 327 329 329 329 330 329 328 329 324 327 323 324 324 327 324 326 325 323 321 318 318 314 309 308 307 310
326 327 327 323 325 327 327 327 328 328 328 327 324 322 319 318 318 320 319 318 320 320 320 320 317 319 318 314 308 306 306 308
326 325 324 323 322 324 324 325 327 327 327 326 322 320 317 317 316 315 314 313 314 313 315 314 313 314 313 311 308 306 306 307
327 328 327 325 324 323 324 323 322 323 324 322 321 319 318 317 315 315 315 315 315 313 312 312 312 313 313 313 310 306 305 305
328 328 326 324 322 324 324 317 318 318 317 316 317 317 316 315 313 312 313 315 314 313 312 312 312 312 311 313 312 311 306 306
328 326 327 321 320 319 317 317 315 314 315 315 316 316 314 312 311 310 312 312 311 310 311 310 309 308 308 309 310 310 309 307
324 325 323 321 319 317 315 314 314 312 311 309 313 313 313 310 308 308 310 308 307 307 307 307 306 305 306 304 306 308 309 311
320 322 321 315 311 311 311 311 310 308 307 309 310 310 309 307 307 307 307 306 304 304 303 303 303 303 305 304 303 305 306 306
311 312 314 310 309 309 309 305 306 306 306 309 309 309 309 307 305 306 305 304 302 302 302 301 301 302 299 301 300 301 302 303
310 309 308 309 310 309 307 305 305 306 311 309 308 307 306 305 303 302 303 302 300 300 300 299 300 300 298 297 294 298 297 301
306 305 306 307 307 305 305 305 306 306 305 304 304 303 303 302 301 301 301 300 299 298 299 298 297 298 298 297 292 290 293 297
304 305 305 305 305 304 304 303 302 303 302 300 299 300 301 301 300 300 300 300 298 298 300 297 297 295 297 299 296 294 292 290
303 305 305 304 303 303 303 301 300 301 299 297 297 298 299 299 300 300 299 298 297 296 297 295 295 294 294 294 293 293 295 290
302 303 304 304 303 302 303 300 299 297 295 294 295 297 297 298 299 296 295 295 295 294 293 293 292 292 292 292 291 290 289 288
303 304 304 304 303 300 299 298 296 295 295 297 297 298 297 297 296 295 294 294 294 293 292 293 293 292 292 291 292 291 291 290
303 302 299 300 299 298 299 298 299 299 299 295 297 297 296 295 295 294 294 294 293 292 291 290 290 290 288 289 289 289 289 289

GFSFLT2_sfc_thetae_009.txt.gz
Theta_e
344 345 343 341 339 338 338 339 339 339 339 338 337 335 334 333 331 329 328 327 328 328 328 328 328 327 328 328 327 328 319 317
338 335 335 333 334 336 337 336 336 337 337 335 333 332 333 334 332 332 331 329 329 330 329 329 328 328 328 327 326 324 317 315
330 330 330 329 330 334 336 336 335 334 334 333 330 326 325 326 330 330 331 331 330 330 331 330 329 327 326 327 323 312 313 313
328 327 327 328 333 331 329 331 329 329 329 329 327 326 326 327 327 330 331 331 331 331 331 330 329 320 317 321 312 308 309 308
326 326 326 327 328 328 327 328 327 327 328 327 326 328 325 325 323 322 321 325 322 324 323 321 320 318 317 316 314 308 305 306
326 326 325 324 325 325 325 326 327 327 328 327 324 322 319 318 318 316 314 313 313 317 317 318 316 315 316 316 314 308 305 305
326 327 325 323 324 325 325 325 328 328 327 326 324 319 315 315 314 313 313 313 313 312 311 311 311 312 312 312 311 309 307 305
324 326 324 322 321 323 323 324 326 326 325 323 320 317 316 315 313 312 312 313 313 312 311 310 310 310 310 311 311 310 307 306
325 324 324 321 321 321 321 322 321 321 318 317 317 316 314 313 310 309 310 311 309 308 308 308 306 307 306 308 309 309 309 307
325 327 323 322 320 320 318 315 313 314 315 313 314 314 312 309 307 306 307 308 307 306 306 304 303 303 303 303 304 306 307 308
323 326 324 321 318 317 315 312 310 309 309 310 310 310 309 306 305 306 307 306 304 303 303 303 301 301 302 301 301 302 302 308
320 320 318 315 313 310 310 311 310 309 307 307 308 308 307 306 305 304 305 302 301 301 300 301 300 301 302 301 299 300 300 302
313 315 316 312 309 309 309 304 305 306 307 308 307 306 305 302 301 301 302 300 299 299 299 299 298 299 297 298 297 296 298 300
310 309 309 309 310 308 307 306 305 309 308 305 304 303 301 301 299 299 299 299 298 297 297 297 297 298 296 295 292 295 296 298
305 305 306 307 309 307 304 304 304 303 301 300 299 301 300 300 299 299 299 298 296 296 296 296 294 296 296 294 290 288 290 294
302 303 303 304 304 303 302 301 301 301 299 296 296 299 298 299 298 298 297 297 295 296 296 293 293 292 294 296 293 291 287 287
301 303 303 303 302 302 302 300 298 298 295 295 295 297 297 298 297 297 297 296 294 293 292 292 292 290 290 290 291 291 290 288
300 301 302 302 301 300 300 297 296 294 293 294 294 295 296 297 298 296 295 294 292 292 291 290 290 290 290 289 289 290 289 289
302 301 299 298 298 297 297 295 294 295 297 298 297 297 297 296 295 294 293 293 292 291 290 289 289 287 287 287 288 288 289 290
297 297 297 298 298 297 297 298 297 299 300 299 297 295 295 294 293 293 293 293 291 290 289 288 287 286 285 286 286 287 287 287

GFSFLT2_sfc_thetae_012.txt.gz
Theta_e
341 340 341 341 340 339 339 339 340 339 338 337 337 334 333 332 331 331 329 330 330 331 331 330 330 330 329 329 326 326 315 316
339 340 341 336 334 336 336 336 337 336 337 335 333 332 332 332 331 330 331 330 330 331 331 331 331 330 329 328 326 318 311 312
337 337 335 331 330 334 336 336 335 335 334 333 329 324 324 324 330 331 332 331 331 331 332 331 330 328 326 326 324 311 309 309
332 329 327 327 333 330 328 329 329 328 328 328 326 325 324 326 327 329 330 330 331 331 331 330 327 320 318 321 316 313 308 307
327 326 326 325 327 326 325 326 325 326 326 325 325 326 324 323 322 320 319 323 318 319 320 319 319 318 316 316 316 315 310 307
326 325 324 324 324 324 324 325 325 325 326 326 324 322 318 317 315 313 312 312 312 313 314 314 313 312 312 313 314 313 310 308
323 324 323 323 323 323 322 323 325 325 325 325 322 319 314 314 313 313 312 312 312 310 310 310 310 310 310 310 310 310 309 308
324 324 323 322 321 322 322 323 324 325 323 322 320 316 314 314 312 311 309 310 309 309 309 308 307 307 306 307 307 307 308 308
322 323 321 321 320 321 323 323 322 321 318 318 317 315 314 310 307 306 306 308 307 306 306 304 303 304 303 304 304 305 305 307
323 325 323 323 320 320 321 317 317 314 313 314 312 311 308 306 305 305 307 306 304 303 303 301 301 301 300 301 301 302 303 306
322 323 323 322 319 318 316 312 311 307 308 307 307 308 307 305 306 306 304 302 301 301 300 300 300 300 300 300 299 299 300 306
319 319 319 317 315 311 311 310 309 309 307 306 307 307 306 306 303 302 301 299 298 298 298 299 299 299 301 299 298 299 300 301
314 314 314 312 308 309 307 306 307 306 304 304 305 305 303 300 299 299 299 298 297 298 297 297 297 298 296 295 297 296 298 300
313 310 309 309 309 307 308 305 304 304 301 300 300 300 299 299 298 298 297 297 296 296 296 295 295 296 294 293 290 293 295 297
305 305 305 306 307 304 302 303 303 301 299 296 297 298 298 298 298 297 297 296 296 295 294 294 292 294 294 293 289 286 290 293
301 302 302 303 302 302 301 299 299 298 296 294 295 297 298 298 298 297 296 295 297 294 294 292 293 290 292 294 292 291 288 286
300 301 302 301 300 301 300 297 297 295 294 294 294 296 297 297 296 296 296 294 293 292 291 290 290 289 288 289 289 290 290 289
299 300 299 299 299 298 297 296 294 294 295 295 294 294 295 295 296 294 293 292 292 291 290 289 288 288 288 288 288 287 285 286
299 297 297 297 297 296 296 295 294 295 295 295 295 295 295 294 293 293 292 292 294 292 289 288 287 286 286 286 287 286 287 287
296 296 296 297 297 296 296 295 295 296 296 296 295 294 294 293 292 292 292 293 293 293 291 288 288 287 285 285 285 286 286 286

GFSFLT2_sfc_thetae_015.txt.gz
Theta_e
345 346 345 341 340 340 339 339 339 339 338 337 336 334 332 333 333 332 330 332 333 332 332 332 331 331 330 329 327 322 320 319
343 344 344 344 344 337 337 337 337 337 336 335 333 332 331 331 329 332 332 332 332 332 333 333 332 331 329 328 327 322 322 320
340 339 340 342 342 339 336 337 336 335 335 333 330 332 332 331 331 331 332 332 332 333 332 332 331 329 327 327 326 326 325 323
338 338 337 341 337 338 337 335 334 334 334 335 334 334 334 333 332 329 328 329 329 328 328 328 328 328 326 325 325 326 325 324
335 335 337 337 335 335 334 334 334 334 335 334 335 335 335 335 334 331 329 324 325 325 327 327 326 324 323 323 323 322 322 320
336 337 335 334 334 333 332 331 332 333 335 335 335 334 333 330 327 325 325 324 324 323 323 323 322 321 320 320 319 317 315 316
333 332 331 331 331 332 332 332 332 333 334 335 335 332 329 327 325 323 322 322 320 320 320 319 318 317 317 316 314 314 314 314
330 330 329 329 329 330 331 331 331 331 330 329 330 329 327 325 320 318 318 319 318 318 318 315 314 313 313 313 312 312 313 314
329 328 328 329 329 327 326 323 324 325 326 323 322 323 319 318 317 317 317 316 316 316 315 313 313 310 310 310 310 310 310 313
330 328 328 326 323 321 318 318 320 320 321 319 318 317 317 317 316 315 314 313 312 312 311 310 309 308 307 308 308 307 309 314
328 329 326 323 320 317 316 315 316 316 317 316 315 315 314 314 313 312 311 310 310 308 308 308 306 305 303 305 304 304 308 310
327 325 321 319 318 316 316 316 315 315 314 312 311 312 312 310 309 310 309 308 307 307 306 306 305 304 300 302 302 305 310 310
324 322 319 317 315 316 316 317 314 311 310 310 309 309 308 309 308 308 308 307 307 307 306 303 302 304 301 299 300 305 306 306
321 319 317 318 319 318 318 315 313 309 307 307 307 307 307 307 308 307 308 307 306 305 304 301 302 303 297 297 293 296 301 303
315 315 315 315 315 313 312 313 311 309 306 305 305 306 306 307 307 308 307 306 305 303 302 301 298 300 302 296 291 290 294 298
312 311 310 309 310 311 310 309 309 306 304 305 306 306 307 306 306 306 305 304 303 302 301 299 297 294 296 298 296 295 289 287
309 308 308 308 309 310 309 307 305 305 305 305 305 305 305 304 304 304 304 302 301 300 299 296 296 293 293 292 292 292 292 289
307 306 306 307 308 308 308 306 304 305 305 305 305 305 306 305 303 303 302 301 299 298 297 295 295 295 294 292 290 288 287 287
305 305 303 304 304 304 304 303 303 303 304 304 304 304 305 305 302 301 299 298 298 297 295 294 295 293 292 291 292 291 291 290
304 304 303 304 304 304 305 305 304 302 301 301 300 301 302 303 302 299 299 298 297 296 296 296 295 294 293 293 292 292 293 292

GFSFLT2_sfc_thetae_018.txt.gz
Theta_e
345 344 344 341 341 340 339 340 340 339 339 338 335 334 334 333 332 331 331 331 331 332 332 332 332 331 330 328 328 322 325 323
344 346 345 345 345 338 338 338 337 337 337 335 333 333 333 331 332 333 332 332 332 332 332 332 332 331 329 329 328 327 325 324
343 342 343 343 342 341 337 337 336 336 335 333 330 334 334 332 330 331 331 332 332 331 331 331 330 331 329 327 327 323 324 323
339 340 340 343 338 338 336 333 332 335 335 335 336 338 337 333 333 329 328 327 326 326 327 328 328 324 324 326 323 324 323 323
337 339 339 339 336 334 331 332 335 337 338 339 340 340 340 336 334 332 334 326 330 329 329 325 326 324 322 323 322 321 320 321
335 337 339 339 334 331 332 333 336 338 340 341 341 337 338 335 331 333 334 330 327 326 325 326 324 322 322 322 320 319 318 318
337 338 337 336 334 333 335 339 338 340 340 340 341 335 335 332 334 331 330 328 326 324 323 322 320 319 320 319 317 317 317 317
336 334 335 334 334 336 336 336 335 336 336 337 332 331 332 332 331 326 326 325 323 322 320 318 317 317 316 316 316 316 316 316
334 335 334 335 332 329 325 325 328 331 331 327 325 326 326 325 325 323 322 323 321 320 318 318 316 315 314 314 314 315 314 314
335 334 334 329 325 323 321 322 325 326 326 327 325 322 322 324 322 323 320 319 317 317 315 314 313 312 312 311 312 312 311 313
334 335 333 331 326 319 322 322 322 322 322 322 321 320 320 322 319 318 317 316 315 313 312 311 310 310 309 309 310 310 310 310
334 332 332 329 325 326 325 322 321 321 320 319 317 317 316 317 316 315 314 313 312 312 311 311 310 309 307 306 308 307 308 310
332 330 330 329 326 323 321 321 321 319 317 316 315 314 314 314 313 313 313 312 312 311 310 309 307 308 305 303 304 305 307 307
331 329 328 326 325 325 325 323 319 316 316 314 313 312 312 311 312 312 312 310 310 310 308 305 305 306 302 301 297 300 302 305
328 326 324 324 323 322 320 320 317 316 315 314 312 312 311 311 311 311 310 309 307 308 307 304 302 303 302 299 295 293 296 299
322 322 321 318 316 317 317 316 315 313 312 312 313 312 312 311 310 310 309 308 307 307 305 303 300 298 299 299 299 297 292 291
318 316 315 316 317 317 315 313 311 312 312 310 311 311 311 309 309 308 308 308 307 305 303 301 301 299 298 296 295 295 294 291
316 314 314 314 314 313 312 310 308 308 307 306 305 305 305 306 307 308 308 307 305 303 301 301 300 298 296 295 293 291 290 290
313 312 311 311 310 309 308 308 307 303 302 301 300 300 300 301 303 305 306 306 304 302 300 301 297 296 295 294 294 293 293 292
312 310 308 308 307 306 305 302 300 301 301 300 300 299 300 302 303 305 305 304 300 300 301 299 298 296 295 295 294 294 293 292

GFSFLT2_sfc_thetae_024.txt.gz
Theta_e
338 338 340 340 339 339 338 339 339 339 337 336 336 335 335 335 335 335 335 335 335 335 335 335 334 334 331 329 329 329 323 321
336 338 341 339 337 337 337 337 337 337 335 334 333 333 334 334 335 334 334 334 333 333 333 333 333 332 331 329 328 328 318 319
336 337 339 339 337 336 336 337 336 335 333 332 330 329 330 331 332 332 333 333 332 330 330 330 331 331 332 331 328 317 316 318
335 337 338 338 335 333 332 331 330 330 328 328 330 334 328 330 331 331 331 330 330 330 330 330 330 321 320 326 318 318 315 316
337 337 338 332 332 333 329 328 333 335 335 335 335 334 332 330 331 326 329 328 328 326 327 325 322 320 318 318 318 315 313 314
336 337 337 333 331 329 330 331 334 334 335 336 335 333 331 331 330 329 327 326 325 324 323 324 320 319 318 317 316 314 312 312
335 336 334 333 333 334 335 335 337 337 338 337 336 334 331 330 329 326 328 325 323 321 319 318 317 317 317 316 314 313 312 312
333 333 333 333 334 335 332 331 331 333 334 333 331 330 326 325 326 325 324 322 320 319 318 316 314 314 313 313 312 311 311 312
331 331 331 335 332 328 327 326 327 331 331 332 330 328 327 325 324 323 321 320 318 316 315 313 311 311 310 310 310 309 308 309
330 330 335 333 329 326 325 325 327 327 327 328 327 327 324 322 321 320 318 318 315 313 312 310 310 309 308 308 307 307 305 306
331 333 333 329 328 328 326 327 326 325 324 323 323 322 322 320 318 317 315 315 313 313 311 310 308 307 306 303 304 303 304 305
332 333 330 330 328 326 327 327 327 325 323 321 321 318 318 317 317 314 313 313 312 311 309 309 307 303 303 302 302 303 302 302
333 329 329 329 327 325 325 323 322 322 318 319 317 316 315 313 314 314 313 310 310 308 305 304 303 303 299 299 299 299 299 298
331 330 329 329 328 327 325 322 321 318 317 316 315 315 313 313 312 311 310 307 306 305 303 301 301 301 296 295 292 294 296 297
330 329 329 330 328 325 321 318 316 314 314 313 313 314 313 312 311 309 307 305 303 303 302 301 297 298 298 294 290 288 292 295
330 329 329 326 326 322 318 315 312 314 313 313 313 313 311 309 307 307 306 306 304 303 302 300 298 294 296 299 295 293 287 286
329 327 323 322 320 320 317 314 314 313 311 308 307 306 305 304 303 303 302 302 303 303 302 300 298 295 295 293 292 291 290 286
323 318 317 319 318 317 314 310 308 305 303 302 302 301 301 302 302 301 301 301 301 302 301 300 299 297 296 294 291 288 287 286
317 315 315 315 314 311 309 306 305 302 300 301 300 299 299 299 299 299 300 301 301 301 299 298 297 296 295 292 292 291 290 289
315 314 313 311 310 307 305 304 302 302 303 300 299 298 298 299 299 299 299 301 300 300 298 297 297 296 295 294 292 293 292 290

GFSFLT2_sfc_thetae_027.txt.gz
Theta_e
335 338 341 339 338 337 337 337 337 336 336 335 335 335 335 336 336 336 336 335 335 334 334 333 333 331 332 331 328 329 317 319
333 335 337 335 334 335 336 336 335 334 334 334 333 333 334 335 334 334 333 333 333 333 331 331 331 331 330 330 328 323 314 316
332 333 334 334 333 334 335 336 334 332 332 332 329 327 328 331 331 332 331 330 330 330 329 329 330 329 330 329 326 313 313 314
332 333 334 332 332 330 329 332 328 325 325 326 325 326 326 329 329 330 330 330 330 329 330 330 328 316 316 321 314 312 311 314
331 332 335 330 328 327 326 325 325 324 323 323 326 328 323 323 323 322 322 327 324 326 323 320 317 315 315 313 312 311 310 314
331 333 333 328 330 327 324 325 329 328 329 332 329 328 327 325 324 322 322 322 319 318 315 315 314 315 314 312 312 310 310 311
330 332 326 326 327 331 330 331 332 333 332 330 329 326 322 321 321 321 320 318 317 316 314 313 311 311 310 310 309 308 308 308
330 329 325 331 330 328 325 327 329 330 329 328 327 325 321 322 321 320 316 315 313 313 310 309 307 308 308 308 307 307 305 305
328 325 328 328 325 323 322 322 328 326 327 326 325 323 322 319 318 315 313 313 311 309 309 308 307 309 307 307 306 304 303 302
327 328 328 323 321 322 321 322 323 323 323 322 323 323 320 318 315 312 311 311 309 308 308 307 306 305 303 302 302 301 302 301
324 328 324 323 322 321 320 321 321 321 319 319 320 319 318 314 312 310 309 309 309 308 306 306 304 303 300 298 298 299 298 302
328 326 324 323 321 321 321 320 320 319 317 316 314 313 312 312 310 308 309 307 306 305 303 303 303 299 302 299 298 298 297 296
327 324 324 323 320 319 318 318 317 313 312 312 311 310 310 308 308 308 306 305 303 302 301 299 298 299 296 294 295 296 295 294
326 326 325 324 322 323 321 317 314 310 310 309 310 309 309 309 307 305 304 302 301 300 299 297 298 296 293 291 289 291 293 295
325 325 325 325 324 325 316 312 309 308 307 307 308 309 309 307 306 304 302 301 299 299 298 297 294 294 295 292 287 285 288 291
325 326 325 326 325 314 311 309 307 307 307 307 307 308 304 301 301 299 298 299 299 299 300 297 295 292 293 296 291 290 284 283
326 324 325 323 320 316 310 307 306 306 304 301 298 299 300 300 299 297 296 297 296 297 297 297 295 293 292 291 289 288 287 284
320 315 313 312 310 310 308 306 300 298 296 296 297 299 297 299 298 297 297 296 296 297 297 295 294 294 293 293 290 287 285 284
312 310 309 307 305 302 301 299 297 296 296 296 298 295 294 294 295 295 295 296 297 297 295 295 294 293 292 291 291 290 289 288
308 309 307 305 304 299 298 298 297 297 297 296 297 296 295 294 295 294 295 295 295 295 295 295 294 293 292 291 291 290 291 289

GFSFLT2_sfc_thetae_030.txt.gz
Theta_e
336 336 338 338 337 336 336 335 335 336 336 336 335 335 335 336 336 336 335 335 333 332 332 331 331 331 332 330 326 326 317 319
330 333 335 334 334 335 335 334 334 334 334 334 333 333 334 334 334 334 334 333 332 330 329 330 331 331 330 328 322 323 313 317
327 331 333 332 332 333 334 334 333 333 333 332 329 327 327 329 329 331 332 330 330 328 328 329 327 328 329 326 319 312 312 315
328 332 331 330 331 329 328 328 326 325 325 325 323 324 325 328 329 330 329 328 328 329 329 327 322 314 315 318 310 310 312 315
327 330 331 328 327 325 325 324 321 322 323 323 323 325 324 323 321 320 320 325 321 320 317 314 313 313 312 310 310 308 308 312
329 331 331 326 325 324 322 321 323 323 329 328 326 324 321 321 319 320 319 317 315 314 312 311 309 311 309 308 307 306 306 308
329 331 330 326 325 323 325 329 331 330 328 328 326 320 319 320 318 317 315 314 313 311 310 308 307 307 307 307 306 305 303 304
330 330 324 326 327 327 328 330 329 327 326 326 324 320 320 319 317 314 313 311 310 308 307 306 306 306 306 305 305 302 301 301
328 324 328 328 325 324 323 325 326 324 324 324 322 322 319 316 314 311 311 310 308 308 307 306 305 306 304 302 302 301 301 300
325 330 325 323 320 319 321 322 322 322 321 321 322 320 318 315 311 309 309 309 307 306 305 304 304 303 299 297 298 299 298 298
323 325 322 320 320 319 319 320 320 319 318 319 319 318 317 312 309 307 308 307 305 305 304 303 302 299 299 297 297 297 296 298
326 324 321 320 318 319 319 318 318 317 316 316 312 311 312 309 307 306 306 304 302 301 300 299 299 297 300 296 295 295 294 294
324 322 321 320 318 316 316 316 315 315 313 311 309 308 309 307 306 304 304 302 300 300 298 297 297 296 293 293 293 293 293 293
323 323 321 320 319 318 319 316 312 310 308 308 307 307 307 306 305 303 302 301 299 298 297 295 296 294 291 290 287 290 292 292
323 323 322 320 320 320 315 310 308 306 305 305 306 307 307 305 304 302 301 300 299 298 298 296 293 293 293 291 286 284 286 289
324 324 323 322 320 318 314 311 307 305 304 304 305 306 301 300 299 297 297 296 295 296 299 295 293 291 291 294 290 289 284 282
323 323 323 323 322 315 311 307 306 306 304 302 298 297 298 299 297 296 296 295 295 295 295 295 293 291 291 290 289 288 286 284
323 322 321 319 321 312 310 305 303 301 296 294 295 296 297 296 296 295 294 294 295 295 294 294 293 293 292 294 292 290 285 283
322 316 308 308 309 306 305 301 300 297 296 295 295 297 296 295 295 295 294 294 294 295 294 293 292 291 291 291 290 290 288 287
313 309 303 302 302 300 299 298 297 297 296 298 297 296 295 295 295 294 293 293 292 292 292 293 293 291 291 291 291 291 290 289

GFSFLT2_sfc_thetae_033.txt.gz
Theta_e
335 335 337 337 336 336 336 336 337 337 337 337 337 336 336 336 336 335 335 334 333 332 331 332 333 331 328 327 326 326 317 321
330 331 334 333 332 334 334 334 335 336 336 335 333 334 334 334 334 334 333 332 332 331 330 331 332 330 326 326 324 321 315 318
325 330 331 331 331 332 333 334 334 334 333 332 329 325 325 327 330 331 330 329 329 330 330 328 324 328 325 323 318 311 312 316
322 325 331 330 331 329 327 327 325 326 325 325 322 323 325 326 329 329 328 327 329 328 327 323 318 312 312 315 307 310 312 313
320 323 329 327 327 325 324 322 322 322 323 322 323 323 324 321 319 319 320 322 315 315 313 312 311 309 308 307 306 306 305 309
324 328 330 326 324 323 322 319 320 320 321 322 323 321 321 319 319 319 316 314 312 311 309 308 307 308 306 305 304 302 302 305
325 329 329 326 322 321 320 323 324 328 328 326 323 319 318 317 316 315 313 312 310 308 306 306 306 306 305 304 302 301 300 301
327 328 330 325 322 323 325 327 327 326 325 323 320 319 318 316 314 312 310 309 308 307 305 305 304 304 302 302 300 300 298 298
326 326 323 324 323 324 325 325 325 323 323 322 320 320 318 314 311 310 309 307 307 306 305 305 304 303 299 299 299 299 297 297
327 327 325 322 321 321 322 322 322 322 321 321 320 318 316 312 309 308 308 307 305 304 304 302 301 298 297 296 297 296 296 295
322 325 322 320 318 319 320 320 319 319 319 319 319 317 315 310 307 307 306 304 303 303 300 301 298 297 298 295 295 294 294 296
324 322 320 319 317 318 318 317 316 316 316 316 313 313 311 307 306 305 303 301 300 299 297 298 296 296 298 295 292 293 293 292
323 320 318 318 317 316 314 314 314 314 313 310 309 310 308 305 304 303 302 300 299 299 297 296 295 294 292 292 292 291 291 291
322 321 318 318 318 316 317 315 312 311 309 307 307 307 306 305 303 301 300 299 297 297 296 295 295 293 291 289 286 289 290 291
322 321 320 318 318 317 312 308 307 305 304 303 305 306 305 304 302 300 299 299 296 296 296 295 293 293 292 291 286 284 285 288
323 322 320 319 318 317 313 311 308 304 303 303 304 304 301 299 297 296 296 295 294 295 296 294 292 291 290 293 289 288 284 283
322 321 322 321 319 318 314 309 305 304 303 302 296 297 297 298 297 297 296 295 294 294 294 294 293 290 290 290 289 287 286 284
321 321 321 321 319 316 313 307 304 303 299 295 295 295 296 295 296 295 297 296 294 295 293 293 293 292 291 291 290 287 285 284
321 321 320 319 319 313 309 306 304 303 299 295 296 295 294 295 296 296 296 295 295 295 293 293 291 290 290 290 290 289 288 286
321 319 311 310 311 307 304 303 304 305 303 299 297 296 296 296 296 296 295 295 294 290 290 291 292 291 291 291 290 290 290 288

GFSFLT2_sfc_thetae_036.txt.gz
Theta_e
333 331 331 336 336 336 337 338 338 338 338 338 338 336 336 336 336 335 335 334 334 335 334 332 331 332 330 328 327 326 320 323
328 327 328 331 332 334 335 336 336 336 337 335 334 334 334 334 334 334 333 333 333 333 333 332 330 329 329 325 323 321 318 320
324 327 329 329 328 331 334 336 335 334 333 332 328 326 325 324 330 330 330 330 331 332 329 328 327 326 324 321 317 312 314 317
326 326 328 329 330 326 325 329 326 326 325 322 322 322 321 325 327 328 328 329 330 327 325 322 315 310 310 312 308 309 311 313
322 324 329 328 327 324 321 321 322 322 322 321 321 322 321 320 319 319 317 319 313 312 311 309 307 306 306 304 304 304 304 308
321 323 327 326 325 323 321 320 320 320 320 322 322 321 320 318 319 317 313 312 309 308 307 307 306 306 305 303 302 301 300 302
319 322 327 325 322 321 319 319 320 321 322 323 322 320 318 316 315 314 311 310 308 306 306 306 305 304 303 301 301 300 299 299
321 324 328 324 320 319 319 322 323 325 325 323 319 317 316 314 312 309 308 307 306 306 305 304 303 301 301 300 300 298 297 298
323 325 327 323 320 319 320 322 324 322 321 319 318 317 316 312 310 308 306 306 306 305 304 303 301 300 298 299 298 297 296 296
325 328 323 321 319 319 320 321 321 321 320 319 319 318 315 310 308 307 307 306 305 303 302 301 299 298 296 296 295 296 296 295
323 323 321 320 318 319 320 321 320 320 319 320 318 316 313 309 307 306 306 304 303 301 299 299 297 297 297 295 294 294 294 294
323 322 319 318 317 317 317 317 317 318 317 317 316 314 310 307 306 304 302 300 299 298 297 297 296 296 297 295 293 293 293 291
321 319 317 318 316 315 313 313 314 313 314 311 312 310 307 306 304 302 301 299 298 298 296 295 295 293 293 292 292 292 292 291
320 320 317 318 319 314 315 313 312 311 309 307 309 307 305 304 302 300 299 298 297 296 296 294 294 293 291 289 287 290 291 291
322 320 318 318 317 315 310 309 307 306 304 303 304 305 304 302 301 299 298 297 295 295 295 294 292 292 292 291 287 285 286 289
322 320 318 317 317 316 312 312 307 305 303 302 303 303 300 299 297 296 295 295 294 295 295 294 293 291 292 293 290 289 286 285
320 320 319 320 318 317 314 311 309 307 302 301 297 296 296 296 296 295 294 294 295 297 297 296 293 291 290 290 289 288 287 285
319 319 320 320 318 316 314 309 305 304 301 296 295 294 294 295 294 294 294 294 296 296 294 293 292 292 292 291 291 289 287 284
319 320 320 319 318 315 312 309 308 307 302 297 295 294 293 294 295 295 296 296 296 295 293 294 292 291 290 290 291 290 289 287
319 320 321 319 318 316 313 314 309 307 302 298 297 295 296 297 296 297 297 296 294 293 292 290 291 291 290 290 290 290 290 288

GFSFLT2_sfc_thetae_039.txt.gz
Theta_e
332 333 334 337 336 337 337 338 339 338 339 338 338 337 336 336 336 336 336 336 336 334 333 334 333 332 329 329 328 328 325 324
324 324 327 331 335 336 336 337 337 338 337 335 334 334 334 335 334 334 334 334 335 334 332 332 332 328 325 323 323 326 326 325
320 319 327 330 332 336 336 337 336 334 334 333 329 329 330 329 330 331 332 333 332 332 330 328 326 324 322 321 322 322 323 325
318 325 327 330 329 333 333 333 332 331 329 330 329 331 329 328 328 329 330 329 328 327 324 322 320 317 317 317 316 318 319 321
322 324 328 328 327 327 329 329 329 329 330 329 330 330 330 328 328 328 329 323 320 318 317 316 317 315 314 313 313 313 314 317
323 322 323 325 328 325 326 326 327 327 327 330 330 329 327 326 327 323 321 318 318 317 316 316 315 314 313 312 311 311 312 312
319 322 323 329 328 325 325 326 326 329 328 329 329 329 327 327 323 321 319 318 317 316 316 314 313 312 311 310 309 309 309 310
323 323 327 332 327 326 325 326 327 327 327 330 330 330 327 324 321 318 317 317 317 316 315 313 311 311 309 309 307 306 307 308
322 325 330 331 328 327 326 327 328 329 330 331 328 328 325 323 320 317 316 316 316 316 314 313 311 308 308 307 306 305 305 306
323 326 329 331 327 326 326 329 330 331 331 329 327 326 323 320 318 316 316 316 315 314 312 310 309 308 307 306 306 305 304 305
325 327 329 331 328 327 328 329 331 330 329 328 326 324 322 320 318 316 316 314 313 311 310 310 307 307 306 307 306 304 303 303
327 328 330 329 328 327 328 329 330 330 330 329 325 324 319 318 316 315 314 311 310 309 308 308 307 307 303 304 305 303 303 303
328 328 329 327 325 324 325 326 327 327 326 326 325 321 317 316 314 312 312 311 309 309 307 307 306 306 304 303 303 302 302 302
329 328 328 327 327 326 326 326 324 324 322 321 322 318 316 315 313 311 310 308 308 308 308 306 306 305 302 300 298 299 301 301
327 328 327 327 328 325 320 320 318 317 316 316 317 315 314 313 311 309 309 309 306 306 306 305 301 303 302 300 296 295 298 300
327 328 327 326 325 324 322 322 319 318 316 314 313 313 311 310 309 308 306 305 305 304 304 304 303 300 301 301 302 301 295 293
328 328 327 326 325 325 324 322 321 317 313 311 310 310 309 307 306 305 304 304 304 304 304 302 301 299 301 301 300 300 300 294
328 327 326 325 323 323 322 321 316 313 310 307 306 306 305 304 303 304 304 303 303 302 300 300 298 302 302 301 299 297 295 294
326 326 322 322 322 321 320 318 316 315 310 306 303 302 303 301 302 302 301 302 301 298 298 299 302 301 301 300 301 299 299 297
325 325 323 321 321 321 321 319 317 316 312 307 304 304 302 302 302 302 302 301 300 297 298 300 301 301 300 300 300 300 300 298

GFSFLT2_sfc_thetae_042.txt.gz
Theta_e
337 338 337 336 337 337 337 338 339 339 339 339 338 337 337 337 337 337 337 335 336 335 335 334 332 330 329 329 329 329 325 325
330 329 326 327 336 336 337 337 338 338 338 336 334 334 335 335 335 336 336 335 334 335 334 332 329 327 326 326 327 327 325 324
325 325 327 327 333 337 337 338 337 335 334 333 329 328 329 330 331 333 335 334 333 332 331 328 327 324 323 323 323 322 323 323
322 321 323 327 332 333 335 333 331 331 329 329 328 331 330 328 330 331 331 330 329 327 325 325 325 323 320 320 321 321 321 321
316 317 320 325 328 332 332 331 331 330 332 330 332 331 330 330 329 330 329 328 325 323 322 323 322 322 320 321 319 319 318 317
314 315 318 324 327 327 327 325 326 327 329 331 331 329 330 330 330 332 330 328 326 324 323 323 321 320 320 319 317 317 316 315
320 321 321 322 323 326 328 328 326 327 329 330 330 328 329 330 330 329 328 326 324 323 322 320 320 319 318 316 315 314 312 311
319 319 323 325 325 326 327 328 327 329 328 331 333 330 331 332 330 327 325 325 324 323 322 321 319 318 316 314 311 310 310 311
321 324 326 328 331 328 326 327 327 327 328 335 336 335 333 332 329 326 324 325 324 323 321 320 318 316 313 312 312 311 311 310
325 324 328 332 331 329 325 328 328 327 332 335 336 335 333 331 327 325 324 324 323 322 320 317 317 316 313 312 312 312 310 311
326 327 328 333 335 330 329 329 329 330 335 334 334 331 330 329 327 325 325 323 322 319 318 319 313 313 311 312 312 310 309 308
326 328 331 333 334 331 327 326 328 333 336 335 333 331 328 328 326 325 324 321 319 317 316 314 314 312 306 306 309 309 308 308
328 329 331 332 332 329 325 323 327 332 334 335 332 331 329 328 326 324 322 319 318 317 314 312 310 311 309 309 308 308 307 306
330 329 330 332 333 332 327 328 328 330 333 334 333 332 328 326 324 321 320 318 316 314 313 310 310 311 307 306 305 305 305 306
329 330 332 333 333 332 328 331 331 330 330 329 330 329 326 325 323 321 319 317 314 314 311 308 308 309 308 304 301 300 303 305
329 331 333 334 334 332 328 325 324 327 328 327 326 326 325 322 320 319 318 316 313 311 309 310 306 303 303 304 304 303 298 298
330 331 333 333 333 333 330 329 328 330 328 325 324 323 321 320 319 318 316 313 312 309 309 307 304 303 304 304 304 303 303 299
330 330 330 333 333 332 331 331 330 326 324 321 320 319 318 316 315 315 314 311 310 309 310 307 302 304 304 304 302 301 299 298
331 330 328 330 329 327 328 329 330 324 324 321 317 316 313 312 312 311 310 308 308 309 304 305 302 305 304 303 303 302 301 300
332 329 327 329 329 323 327 327 326 325 326 322 318 312 312 310 309 309 307 307 306 304 302 301 304 303 304 303 302 303 302 300

GFSFLT2_sfc_thetae_045.txt.gz
Theta_e
337 336 340 338 337 337 337 339 339 340 340 340 340 338 338 338 337 338 338 337 336 335 334 333 331 330 330 329 328 331 326 325
327 327 335 337 336 336 337 338 338 338 338 336 335 335 335 336 335 335 336 336 336 335 333 331 329 328 328 328 327 329 324 324
326 321 321 327 335 337 337 338 337 335 335 333 330 328 328 328 333 335 334 334 334 333 331 329 328 326 324 323 324 322 322 322
320 319 319 321 324 331 334 334 333 331 330 330 329 330 330 329 332 332 332 331 332 331 329 327 326 323 321 323 321 321 319 319
321 320 320 324 325 329 332 332 331 329 331 331 334 332 331 329 329 328 329 328 324 323 322 325 326 324 323 322 320 319 318 316
318 320 321 323 322 326 331 329 329 328 331 337 333 330 333 331 328 330 329 328 327 327 326 327 325 323 322 319 319 317 314 313
314 317 319 321 322 324 327 327 324 326 330 332 332 330 333 331 331 331 330 330 328 326 325 323 323 321 320 318 316 313 312 311
314 318 320 319 320 323 327 329 328 331 330 332 335 331 333 330 331 330 330 329 328 326 325 323 322 320 318 316 312 312 312 312
317 317 317 318 320 321 324 329 328 329 329 335 333 334 335 334 331 329 329 329 328 327 325 324 320 318 316 313 312 311 312 311
316 315 317 325 326 325 324 328 328 326 327 331 335 333 333 334 331 330 329 328 327 325 324 321 318 317 315 313 313 312 311 310
318 323 323 326 327 329 327 329 327 325 329 330 335 335 335 333 331 330 330 327 326 325 323 321 316 314 312 312 313 311 311 308
321 325 326 330 332 329 326 324 327 327 328 330 334 334 333 332 331 330 329 326 325 323 321 318 315 314 309 308 312 312 311 309
326 326 327 330 329 326 323 321 323 325 329 332 334 334 332 331 330 329 328 326 324 323 319 315 313 312 310 313 313 312 310 309
326 326 327 331 331 330 326 325 323 326 329 333 334 334 333 331 331 328 327 324 323 321 318 314 313 312 311 311 308 308 309 309
327 328 329 330 331 331 329 326 326 324 327 329 332 333 333 331 330 328 326 324 320 319 317 315 310 312 313 307 302 302 305 309
330 330 330 330 332 331 328 323 323 327 329 330 331 333 332 330 328 327 324 322 321 319 316 314 313 310 309 308 308 307 300 300
331 331 330 332 333 332 331 327 327 329 330 330 331 331 330 327 326 325 323 321 320 318 315 313 312 308 309 308 307 307 306 302
333 329 329 331 332 332 332 330 329 330 331 328 327 327 327 326 324 323 323 320 318 315 313 312 308 308 304 306 305 302 303 302
330 329 327 331 333 331 332 332 332 326 328 327 325 324 323 323 322 320 317 315 315 313 310 308 306 302 305 306 305 305 304 302
330 328 328 329 331 330 331 332 331 329 326 325 323 322 321 322 318 313 312 312 310 308 307 304 303 304 304 305 304 304 304 302

GFSFLT2_sfc_thetae_048.txt.gz
Theta_e
339 338 338 337 337 337 338 339 340 340 340 340 339 337 338 340 341 341 339 337 336 335 334 333 332 330 328 327 329 330 323 320
331 333 333 333 334 336 337 338 338 338 338 336 335 335 336 337 337 337 336 336 335 334 333 332 330 328 326 324 326 326 318 320
328 328 329 330 332 336 337 338 337 335 335 333 329 326 326 329 334 335 335 334 333 332 331 329 327 325 325 325 325 317 316 319
326 325 323 324 329 331 334 334 332 331 329 328 325 325 327 328 332 332 333 332 331 330 329 327 325 316 316 323 315 316 315 318
319 322 322 323 324 326 328 328 328 329 328 329 330 326 327 328 327 325 326 328 322 322 323 321 321 320 318 316 316 314 311 312
317 320 320 320 321 323 324 327 327 326 327 331 330 327 326 326 325 326 323 322 319 321 320 323 320 320 317 316 314 310 307 309
318 319 320 319 319 321 323 325 326 325 325 330 329 327 327 326 326 326 325 326 323 324 322 320 319 317 316 314 310 308 308 308
317 318 319 319 317 317 320 324 325 322 323 329 329 329 327 328 330 329 329 326 325 323 321 319 318 316 314 310 308 307 307 306
316 317 319 318 318 320 321 323 326 328 328 329 330 332 329 330 328 329 326 326 325 323 321 320 317 316 312 309 308 307 307 306
316 318 316 317 318 320 320 322 326 327 327 329 330 331 330 329 329 327 327 325 323 322 320 318 316 313 309 308 307 306 306 305
314 315 315 315 318 314 316 320 324 325 326 327 331 331 332 330 329 328 327 324 323 322 320 318 313 310 309 307 306 306 306 307
315 314 314 319 321 314 318 322 324 325 324 325 330 331 332 330 329 327 325 323 322 321 318 316 313 310 309 306 307 307 306 305
315 313 316 321 321 319 321 319 322 323 324 325 331 330 331 329 328 327 324 323 321 321 317 313 308 307 304 306 307 308 306 305
319 320 320 323 323 324 324 322 321 323 324 327 331 330 330 329 327 325 324 323 321 318 315 310 310 308 304 305 302 303 305 306
321 322 322 324 327 327 326 324 321 319 322 328 330 331 330 329 328 326 324 323 319 317 315 312 307 306 307 304 299 298 298 303
325 324 324 324 328 327 326 321 318 319 321 326 329 330 329 329 329 327 324 322 318 316 315 312 309 305 306 307 305 303 295 294
325 325 325 327 327 328 325 324 321 324 322 326 327 328 329 328 327 325 323 321 320 317 315 313 308 306 306 304 305 305 301 297
326 326 326 328 328 327 326 324 324 323 325 325 326 326 327 326 326 323 322 320 319 317 313 310 305 305 304 302 301 301 299 299
327 327 326 327 329 328 327 327 328 326 325 324 322 322 321 322 323 321 319 318 314 312 309 307 304 302 302 301 303 301 302 300
327 327 326 327 328 329 328 328 328 327 326 325 322 321 322 320 320 318 315 312 310 308 306 305 302 301 299 302 301 300 302 301

GFSFLT2_sfc_thetae_051.txt.gz
Theta_e
338 339 339 337 337 338 339 340 340 340 340 340 341 341 342 343 341 339 338 337 336 335 333 331 329 328 328 327 327 327 317 318
334 335 335 335 334 336 338 338 338 338 337 336 336 338 340 339 338 337 337 336 335 334 332 330 327 325 324 325 326 325 317 318
328 328 329 330 333 337 337 338 336 335 335 333 330 331 333 332 334 335 335 334 333 332 330 328 326 323 322 324 321 317 319 320
325 326 326 327 332 334 334 333 330 328 326 322 323 324 328 331 332 333 332 331 331 330 328 326 323 313 314 318 312 314 317 318
323 322 322 325 327 326 330 329 328 326 324 324 324 326 326 326 326 327 326 327 322 323 322 317 316 315 312 311 308 308 309 313
319 320 321 321 319 318 323 325 325 323 325 326 324 324 323 322 322 322 321 319 315 315 315 317 316 314 313 310 306 304 306 308
318 320 319 320 320 321 322 325 322 323 325 327 325 324 322 322 322 321 320 318 314 316 317 317 315 313 311 308 306 304 306 307
318 318 318 318 318 316 317 322 320 321 322 326 326 324 325 322 323 323 320 321 319 319 317 315 314 312 309 306 305 304 303 306
316 316 317 316 318 318 319 321 323 321 321 324 326 327 324 324 325 325 326 322 321 318 317 315 313 313 308 305 305 304 303 303
316 317 316 316 317 318 319 319 322 322 322 324 325 327 327 324 323 323 323 322 320 318 316 314 312 309 305 304 304 303 302 303
315 316 316 316 317 317 317 319 319 320 321 323 325 326 328 323 325 323 322 320 319 318 316 314 311 307 305 304 303 303 302 304
315 315 315 316 317 316 316 316 315 319 320 321 326 325 326 326 325 323 322 319 318 317 315 313 310 307 308 304 302 303 303 301
312 312 313 314 314 313 312 312 316 316 319 320 323 326 327 326 324 323 322 319 317 317 314 311 306 304 301 300 302 302 303 302
311 312 312 312 317 312 311 315 317 320 320 319 323 327 327 326 324 322 320 319 318 316 312 307 306 303 300 301 299 301 302 302
311 311 312 314 319 317 315 318 317 314 316 318 322 328 326 326 324 323 320 319 317 313 311 308 305 304 304 302 297 296 296 300
314 312 312 316 320 318 316 317 316 316 314 317 325 326 325 326 325 323 320 320 317 314 314 311 309 304 305 305 301 301 295 293
316 316 315 318 320 320 320 320 319 316 316 317 324 324 324 324 324 323 321 322 319 316 314 312 310 307 304 303 302 303 302 298
317 317 318 319 320 321 323 323 321 317 316 318 323 323 324 326 326 323 322 319 318 315 312 311 307 306 304 303 302 300 300 299
319 320 319 320 320 320 324 323 322 320 319 320 319 320 319 321 322 320 319 318 316 313 309 306 306 305 303 302 302 302 302 300
320 320 320 321 321 322 324 324 323 323 321 319 320 321 320 320 320 318 316 315 311 309 307 305 305 303 301 301 303 301 301 300

GFSFLT2_sfc_thetae_054.txt.gz
Theta_e
333 336 339 337 336 334 335 339 341 342 342 342 342 342 340 340 339 338 337 336 334 333 331 331 331 330 330 329 326 325 315 317
334 334 335 332 332 332 333 338 338 339 340 340 339 340 339 338 337 337 336 334 333 332 330 329 329 328 328 327 325 323 315 316
332 330 329 329 329 329 332 338 337 337 338 337 335 336 335 332 334 334 334 333 331 330 329 327 323 325 326 325 322 316 317 317
328 328 326 324 325 330 333 334 331 330 328 329 328 329 330 331 332 332 331 330 330 328 327 325 319 312 312 319 314 317 317 318
325 326 326 324 323 325 332 329 326 323 323 324 328 329 327 327 327 326 326 326 322 321 317 314 315 312 309 309 311 313 313 316
322 324 324 324 328 330 328 326 323 322 323 323 324 323 322 323 323 323 321 319 317 315 313 315 313 312 309 305 307 307 308 310
319 320 321 320 319 324 326 324 323 324 324 323 322 319 319 320 320 319 317 317 312 313 315 315 311 311 308 305 303 305 304 306
319 319 318 320 317 319 323 323 322 324 324 323 321 319 319 319 318 317 316 316 314 315 315 313 311 309 305 304 303 304 305 304
317 316 319 318 317 318 320 321 321 322 322 324 323 322 321 320 321 321 319 318 317 317 315 314 311 310 306 303 303 302 304 304
317 319 317 317 316 316 318 319 321 320 320 323 324 325 323 323 323 323 323 321 318 316 315 313 311 309 304 302 302 302 301 301
314 316 315 316 316 316 317 317 319 320 319 322 323 324 326 323 323 322 322 320 318 317 314 313 310 307 305 302 301 301 300 302
314 315 315 316 316 316 316 316 316 318 319 318 322 323 323 323 323 322 321 318 316 315 314 313 311 308 307 304 300 301 300 300
313 314 315 316 314 313 313 312 313 314 317 318 318 322 322 322 323 321 320 319 317 316 314 311 307 305 301 299 300 301 300 300
313 312 313 315 315 314 312 312 311 315 316 317 318 321 323 323 322 321 320 318 316 315 312 307 307 302 301 301 301 301 301 301
312 312 312 313 315 313 309 309 314 314 315 315 317 320 322 323 323 321 319 318 316 314 311 309 307 305 304 304 299 297 296 298
312 312 311 312 314 314 309 309 309 313 315 316 317 320 323 324 324 321 319 319 317 315 313 310 311 306 304 305 303 302 297 296
311 311 312 312 312 317 312 310 312 316 315 313 316 320 323 324 323 321 320 320 320 317 315 311 311 307 305 303 303 303 301 298
310 309 311 312 312 315 315 312 313 315 314 312 314 320 321 323 324 322 320 320 320 319 316 314 310 307 307 305 304 302 301 300
312 310 309 311 311 314 315 315 315 317 318 314 314 319 318 321 323 321 320 319 319 318 313 311 307 305 305 304 304 304 303 301
312 313 311 311 312 314 316 316 318 321 321 317 316 319 320 319 320 318 318 317 315 313 310 307 306 305 304 304 304 303 301 301

GFSFLT2_sfc_thetae_057.txt.gz
Theta_e
335 337 336 333 331 329 329 335 341 340 340 340 340 339 338 338 337 336 334 333 332 332 332 332 333 330 329 327 325 323 314 315
334 334 334 330 328 329 331 336 338 338 339 340 338 338 337 336 335 334 333 332 332 331 330 331 332 331 328 326 325 322 314 315
332 331 330 328 327 327 331 336 338 338 339 338 335 334 332 329 332 333 332 332 331 329 327 328 330 328 328 326 321 314 314 316
327 327 325 325 326 326 330 333 335 337 337 335 334 329 328 329 330 331 330 330 329 328 326 323 319 315 320 321 315 316 316 317
325 324 324 321 319 320 327 331 331 326 325 329 329 328 328 326 325 324 324 324 319 317 313 314 311 312 311 312 315 316 316 317
324 323 321 321 321 319 325 327 326 325 326 328 326 324 324 323 321 320 319 317 314 314 314 313 310 308 308 309 311 310 311 313
323 324 322 319 318 321 326 324 323 324 325 326 325 322 320 320 319 318 316 314 313 311 314 311 310 307 304 305 305 305 306 308
321 321 323 322 323 325 323 320 321 323 324 323 321 320 320 318 317 317 314 313 313 313 314 310 309 305 303 302 303 303 303 303
318 319 320 320 321 321 322 321 323 322 321 321 319 319 318 318 317 317 315 314 312 314 313 311 308 306 303 302 302 303 303 302
318 320 318 319 320 320 320 320 322 321 322 322 320 320 320 318 319 318 318 316 314 314 313 311 308 308 303 301 300 300 302 303
317 317 316 316 317 317 317 318 319 320 322 322 322 322 322 321 321 321 320 319 316 315 313 311 308 307 304 301 300 300 299 302
316 316 316 316 315 316 316 316 317 318 318 321 323 323 323 322 321 321 322 319 317 314 313 311 310 307 308 303 299 300 299 298
314 314 315 315 314 313 313 312 314 315 318 319 320 322 321 321 321 320 319 317 316 315 312 310 307 305 301 299 299 300 299 298
313 314 314 315 314 314 313 312 312 315 316 316 318 318 320 320 321 320 320 318 315 313 311 308 308 303 301 301 296 299 300 300
312 313 313 314 315 313 311 311 311 313 314 315 316 317 319 320 320 319 317 316 316 313 312 309 308 303 304 305 300 298 299 300
312 311 311 312 315 313 311 309 309 309 312 314 315 317 317 319 320 319 318 318 316 315 314 310 310 306 305 307 304 304 299 299
311 311 311 312 312 313 310 307 307 309 312 313 313 315 317 319 320 319 318 319 318 316 313 310 309 310 308 305 305 303 303 300
309 310 311 311 310 312 312 308 307 308 310 311 312 313 316 318 320 320 319 319 317 317 316 313 312 311 308 307 306 304 302 300
309 309 309 311 310 310 313 313 309 309 310 312 312 311 313 317 319 318 320 321 320 319 317 316 313 310 307 307 307 305 305 303
309 309 309 310 310 310 311 313 314 312 311 314 314 314 315 317 318 319 320 317 315 315 314 313 310 308 306 305 306 305 303 301

GFSFLT2_sfc_thetae_060.txt.gz
Theta_e
335 335 337 336 335 333 334 336 339 340 340 340 339 338 337 338 337 335 335 336 337 336 334 332 332 330 329 327 325 323 315 317
332 332 329 328 329 331 330 330 337 339 339 339 338 337 336 335 333 333 333 333 335 335 333 331 330 329 328 326 325 322 315 316
331 329 327 326 325 327 328 330 334 336 338 337 334 332 329 325 329 331 331 331 331 332 332 331 329 328 327 326 320 315 316 317
329 329 325 325 324 323 321 326 326 331 336 333 331 327 324 326 329 330 328 328 328 331 331 329 324 319 321 320 315 316 316 317
325 325 325 324 323 324 326 326 327 330 334 332 328 327 327 324 323 323 321 323 317 318 317 315 315 313 314 315 316 316 316 318
324 325 324 323 322 322 326 325 326 326 329 329 327 325 322 319 320 317 315 313 312 314 312 311 311 312 313 314 314 314 314 316
322 322 319 319 319 321 325 325 325 327 328 328 325 322 319 319 319 317 314 312 312 312 310 309 308 308 310 310 310 311 311 313
322 320 320 320 317 322 323 323 322 325 327 326 323 321 319 318 317 314 312 311 312 313 310 309 307 305 305 306 305 305 306 306
320 322 321 320 319 323 321 322 323 323 324 321 319 319 318 317 317 315 314 311 313 314 311 309 306 304 303 303 304 303 303 303
320 321 321 321 322 321 320 321 322 322 321 320 319 319 318 316 316 316 315 313 313 313 311 309 307 305 302 302 302 303 304 303
318 318 319 320 321 319 319 319 320 321 321 319 319 319 319 317 317 317 316 315 313 314 312 311 308 308 304 302 301 301 302 303
317 316 316 317 318 317 316 317 318 320 320 320 321 320 320 318 319 319 318 317 315 314 313 311 310 308 308 304 301 301 300 300
315 314 315 315 316 315 315 314 314 316 318 321 322 322 322 321 321 320 320 318 317 316 313 311 309 307 304 302 301 301 300 300
314 314 315 315 318 318 315 314 313 315 316 317 320 321 321 321 321 320 319 318 316 314 312 310 309 305 303 300 299 300 301 301
314 314 314 315 315 314 311 311 313 312 313 314 316 317 318 320 319 320 318 318 315 313 312 310 308 305 304 306 299 298 299 300
313 314 314 314 314 314 311 312 311 311 312 314 315 317 316 318 318 317 317 316 315 314 314 311 309 306 303 305 306 305 300 299
312 311 313 314 312 312 310 306 309 309 313 313 314 315 315 316 317 317 317 317 316 314 312 310 309 307 304 303 304 304 304 303
311 309 310 312 312 312 311 309 307 306 307 309 311 312 313 315 316 316 316 316 316 316 314 314 313 312 309 308 306 304 303 302
308 310 309 309 310 311 312 309 308 307 306 307 308 309 310 312 314 315 315 317 318 318 317 316 315 313 312 311 310 309 307 305
308 308 309 310 309 308 310 312 311 309 308 308 309 310 310 312 313 315 316 316 318 319 318 317 315 313 312 311 309 307 306 304

GFSFLT2_sfc_thetae_063.txt.gz
Theta_e
340 338 339 338 338 337 339 340 341 340 340 339 339 338 338 339 337 337 338 339 337 335 333 332 331 330 329 328 326 327 325 325
339 337 339 338 337 333 336 337 338 339 338 337 336 336 337 337 335 337 338 338 336 333 332 331 331 329 328 327 326 326 325 325
336 333 335 336 334 334 335 334 336 337 337 336 334 338 335 331 331 335 337 335 333 332 332 330 329 328 327 325 324 324 325 325
330 329 329 329 327 327 329 331 331 333 336 336 334 333 330 327 331 331 332 333 332 331 331 329 326 324 324 323 323 324 324 325
329 324 324 324 322 322 326 329 330 331 334 333 332 328 330 330 328 328 330 331 330 329 327 325 324 323 322 322 324 324 324 325
324 324 323 323 322 321 322 324 326 328 330 334 330 326 327 326 324 324 324 325 328 328 324 325 324 323 323 323 323 323 324 325
324 325 324 323 322 323 324 324 326 326 329 332 327 324 324 325 323 322 321 322 323 322 323 322 322 322 322 322 322 323 325 325
323 323 322 323 322 324 326 326 326 326 330 332 329 325 325 324 322 321 321 321 321 321 321 321 320 321 320 320 319 321 323 324
320 320 320 319 323 324 325 325 325 325 330 331 327 325 326 325 323 321 321 321 320 319 318 317 315 315 316 315 315 316 316 317
321 321 319 319 323 322 324 324 326 325 326 328 326 326 325 324 322 322 322 323 322 319 317 315 313 311 311 311 312 312 313 312
320 320 320 320 321 322 322 324 325 325 323 324 325 325 325 324 322 322 323 322 322 320 318 317 314 311 311 311 311 311 312 309
319 321 320 321 320 322 321 320 324 325 324 322 324 323 323 323 323 323 323 321 322 322 320 319 316 315 311 309 310 309 309 310
318 317 319 320 318 317 317 318 323 324 324 322 324 323 323 325 325 324 324 323 322 321 321 319 317 316 313 312 312 309 309 309
317 316 317 319 320 320 319 321 321 322 323 323 323 323 324 325 325 325 324 324 322 322 321 320 320 316 315 313 311 311 310 310
316 316 316 317 319 316 315 315 316 318 320 321 323 325 325 326 326 325 325 326 323 323 322 320 319 316 316 318 309 310 312 311
318 316 316 316 317 316 316 316 314 318 318 322 321 323 324 324 324 324 325 326 324 323 323 323 322 318 314 313 315 315 311 310
317 316 317 316 316 316 313 315 317 315 315 318 319 320 321 322 321 323 324 325 326 326 324 322 322 321 318 314 313 313 314 310
317 316 317 316 315 316 315 314 313 313 312 314 316 320 320 321 321 323 325 325 325 325 326 324 322 321 319 317 316 309 311 307
315 315 315 316 315 315 315 316 315 315 313 315 317 318 319 320 322 322 323 325 325 326 325 324 323 321 316 313 312 313 318 311
314 313 314 315 316 316 317 317 316 316 315 316 317 319 320 321 321 322 323 324 325 326 325 325 324 316 315 316 317 317 318 314

GFSFLT2_sfc_thetae_066.txt.gz
Theta_e
342 341 340 338 337 339 340 341 341 340 341 341 341 340 340 340 340 340 340 337 335 335 334 333 331 330 329 328 328 330 328 327
341 343 340 342 344 336 337 339 338 339 340 339 338 338 337 337 337 339 339 337 335 334 333 332 330 329 328 327 327 328 328 327
342 340 340 338 340 339 338 338 337 337 338 336 335 338 336 335 335 337 336 334 333 333 332 331 329 329 328 327 327 327 328 327
339 338 339 338 336 338 338 335 335 336 335 335 336 337 336 331 335 335 334 332 332 331 330 329 326 325 325 325 325 327 327 327
335 335 332 333 336 330 332 332 333 332 334 334 336 336 332 332 336 336 334 330 328 328 327 326 325 324 323 324 326 327 327 326
328 330 326 326 326 328 327 326 328 329 329 332 332 330 331 331 332 332 331 330 329 328 327 328 327 325 324 325 326 326 327 326
327 324 323 323 324 326 325 325 326 327 327 329 333 329 329 328 331 332 331 332 331 329 328 327 325 325 324 323 324 325 327 326
324 324 324 323 322 325 324 325 325 327 327 328 331 329 328 326 327 326 328 330 330 328 327 325 324 324 323 323 322 324 325 327
324 324 323 322 322 323 324 326 326 326 326 329 332 330 329 328 325 325 326 328 328 327 326 325 323 322 322 322 320 322 322 323
323 322 322 323 322 323 325 324 324 325 326 327 329 328 328 327 325 325 327 326 325 324 324 323 322 321 319 318 318 318 319 320
322 321 319 322 323 326 326 325 324 326 327 327 326 327 328 325 324 325 328 325 324 323 323 323 320 319 317 317 317 316 316 315
322 322 319 323 325 324 325 324 324 325 325 326 327 325 326 325 324 325 326 326 326 324 324 324 322 320 316 315 316 316 317 316
321 319 319 323 322 320 320 321 323 322 322 324 327 325 326 328 325 325 326 325 327 327 326 324 322 323 318 317 316 316 316 316
319 320 322 321 322 321 323 324 323 323 322 323 325 327 324 324 326 324 326 325 326 327 326 323 324 323 320 321 316 317 317 316
319 319 320 323 322 322 319 320 320 322 322 322 323 325 322 323 326 326 327 327 325 326 326 325 322 324 325 321 315 313 320 321
322 320 319 320 321 319 319 315 313 323 323 323 321 325 323 323 327 328 328 328 326 327 327 326 326 322 323 323 325 322 315 313
322 321 319 319 319 318 317 315 316 321 321 323 320 323 325 325 327 328 327 329 328 330 327 328 327 327 323 323 322 322 322 317
321 322 320 319 318 319 317 320 320 320 318 320 319 320 323 323 324 326 327 327 327 327 329 330 328 328 327 326 323 320 318 318
319 320 320 320 318 319 318 319 318 316 318 317 318 318 319 320 324 325 325 324 326 325 328 328 328 327 327 326 326 324 319 315
321 320 320 320 321 320 321 319 318 320 318 318 317 319 321 321 323 324 324 326 326 327 328 327 329 328 328 328 326 323 315 320

GFSFLT2_sfc_thetae_069.txt.gz
Theta_e
346 346 342 337 331 329 327 332 342 342 342 342 342 340 340 341 341 339 337 337 336 335 334 333 332 331 330 328 328 330 328 326
346 346 342 337 336 330 335 337 339 340 341 340 339 339 340 340 339 337 336 336 335 334 333 332 331 330 328 328 327 328 327 326
343 343 342 342 340 340 337 337 338 339 340 338 336 339 340 339 337 335 334 334 333 333 332 331 330 329 328 328 328 327 327 325
340 341 342 342 341 341 340 336 339 339 339 336 335 337 339 337 336 333 332 332 332 332 331 329 326 323 324 326 327 328 327 326
336 338 342 342 342 343 338 338 336 335 335 336 335 335 333 337 337 332 330 330 327 326 326 324 323 322 325 327 328 328 327 326
335 337 336 334 339 335 335 336 332 331 330 330 329 329 330 335 334 329 328 328 327 324 324 328 325 323 325 327 327 327 326 326
328 328 332 331 329 332 334 330 330 329 328 328 327 327 330 333 332 330 328 331 328 326 327 326 325 324 324 326 326 327 327 326
328 325 325 326 331 326 328 328 327 327 327 327 327 328 330 331 332 332 330 331 329 328 327 325 324 323 323 324 325 326 327 327
326 323 324 323 324 325 324 325 325 324 325 327 327 328 331 331 332 330 331 330 333 330 327 325 323 323 322 323 323 325 325 326
327 324 324 323 323 324 324 325 324 323 323 326 327 329 332 332 329 328 331 331 330 327 325 322 322 322 321 321 320 322 323 324
324 325 324 323 323 325 325 324 324 324 323 324 327 329 330 330 328 328 333 329 329 327 325 324 322 321 319 319 319 318 319 319
323 323 322 322 325 325 323 323 323 324 324 324 327 327 329 327 327 330 329 325 325 326 326 325 324 322 318 317 318 318 318 317
321 319 320 321 322 322 319 319 320 321 322 325 326 327 327 328 325 327 328 326 326 328 327 327 323 324 319 317 318 319 320 318
322 321 321 321 324 323 322 320 321 320 322 323 327 328 326 325 325 326 327 327 329 329 328 325 324 326 319 319 315 316 318 320
322 322 322 323 324 323 322 322 321 319 320 321 324 327 326 325 328 328 326 328 328 329 330 328 322 326 326 324 315 313 318 322
323 323 323 322 324 323 321 320 318 318 318 321 321 326 325 326 327 326 327 329 329 329 329 329 325 320 324 324 326 324 316 312
322 322 322 323 324 324 320 318 322 320 319 319 321 323 325 324 324 325 324 329 329 331 328 328 327 322 320 325 324 322 323 318
323 321 321 322 323 323 321 320 320 317 320 319 319 321 325 326 323 323 325 326 328 327 325 325 325 327 325 326 323 319 318 319
323 322 319 320 320 322 324 322 317 317 321 322 319 319 321 325 323 321 321 323 325 326 322 325 326 327 327 324 324 324 325 323
324 322 320 321 320 320 323 323 322 321 322 324 322 321 319 323 323 322 325 324 326 326 327 324 327 324 326 326 326 326 327 326

GFSFLT2_sfc_thetae_072.txt.gz
Theta_e
348 344 338 340 337 333 331 330 329 339 343 343 342 340 340 340 340 339 339 338 337 335 335 334 333 331 329 329 329 332 323 323
344 345 341 334 332 330 329 328 331 334 340 340 338 338 339 338 337 337 337 336 335 333 334 333 331 329 328 328 328 331 321 322
343 341 342 338 332 331 331 330 329 332 340 338 336 337 337 335 335 335 335 334 334 333 332 331 329 328 328 328 328 323 323 322
339 338 339 338 337 331 330 332 328 334 338 337 336 336 336 335 334 333 333 332 332 332 330 328 326 321 320 324 321 323 322 321
335 336 336 336 334 334 335 330 327 329 335 335 335 335 333 332 330 330 329 330 327 327 325 320 318 319 320 321 323 323 322 321
335 335 336 335 336 334 334 333 334 333 333 334 333 331 332 330 325 325 323 323 321 320 319 320 318 320 322 323 324 323 321 321
331 331 333 332 333 334 334 333 332 330 329 328 329 329 328 329 323 322 322 322 321 318 320 320 319 318 322 322 324 323 321 321
328 326 328 330 328 330 331 330 328 328 327 326 327 327 327 327 324 322 324 322 323 320 323 321 319 319 320 321 322 323 322 321
324 324 325 326 327 328 329 328 327 325 325 324 325 326 325 326 326 323 324 324 324 323 322 321 319 319 318 320 321 321 323 321
324 324 323 324 324 326 326 326 325 324 324 325 324 326 326 325 326 326 325 325 325 324 321 320 318 317 316 316 317 319 320 321
324 323 323 323 324 323 324 324 323 323 324 324 325 325 326 325 326 327 328 326 326 322 321 319 317 317 316 315 315 315 317 318
324 324 324 323 323 323 322 322 321 321 323 324 323 323 325 326 326 325 327 325 324 322 320 321 319 317 316 315 314 314 314 314
322 322 322 322 321 320 319 319 320 319 320 323 324 325 325 326 325 326 325 322 322 323 322 320 320 320 316 313 314 315 314 313
321 320 321 322 323 321 321 321 321 319 320 322 324 324 324 324 323 323 324 323 322 322 321 319 320 320 314 312 309 310 313 314
319 320 322 322 323 322 321 320 319 318 317 319 321 323 323 323 323 322 323 323 323 323 323 321 317 319 319 316 309 308 311 313
322 321 321 322 323 321 318 317 314 316 315 317 320 323 323 323 323 323 322 323 324 324 325 322 321 316 319 321 320 318 311 310
322 322 321 322 322 321 319 318 318 317 315 315 319 321 322 323 323 324 323 322 324 324 323 323 322 318 317 316 317 317 317 311
323 322 321 321 322 321 321 319 318 317 315 315 318 318 322 322 323 324 323 325 324 322 323 322 320 318 318 319 317 314 314 312
321 320 320 321 321 321 321 321 319 318 315 315 317 317 318 321 321 322 321 322 324 324 321 320 320 318 317 317 318 317 318 316
320 321 320 321 321 321 321 321 320 320 319 317 316 318 319 321 322 321 321 321 321 320 319 320 319 319 318 318 318 318 318 318

GFSFLT2_sfc_thetae_075.txt.gz
Theta_e
339 340 340 339 338 337 334 336 332 330 330 340 341 341 340 341 341 340 340 339 338 337 336 335 333 331 329 328 329 328 322 322
339 338 334 333 330 332 332 332 331 331 329 333 338 338 340 340 339 338 338 337 336 336 334 333 331 329 328 329 328 327 321 320
335 337 332 330 328 330 332 332 332 330 331 327 335 336 335 335 336 336 336 335 334 334 332 330 329 328 328 328 326 321 321 321
332 332 333 331 330 329 327 327 328 330 329 327 335 334 332 333 334 333 333 333 333 332 330 329 324 318 318 323 321 321 321 321
328 330 330 332 331 328 327 325 326 328 326 327 334 332 332 331 330 330 329 330 327 325 324 319 317 317 317 318 320 320 321 321
327 328 329 330 332 328 329 324 325 327 331 334 333 330 329 327 326 325 325 324 321 318 316 316 316 318 318 320 319 319 320 320
322 323 327 329 330 331 331 328 328 326 331 332 332 330 325 324 324 322 318 321 319 316 316 314 315 316 319 320 319 319 320 321
321 320 322 328 327 329 332 331 331 329 329 330 331 329 324 322 321 318 318 318 315 317 318 315 314 316 317 319 320 319 319 319
319 319 320 325 324 328 329 330 330 327 327 328 328 328 325 323 319 320 321 319 316 317 319 318 315 317 316 317 321 319 319 319
320 323 321 322 325 327 327 328 328 327 326 326 325 325 326 324 320 320 322 320 319 319 319 317 314 314 313 315 317 319 319 319
317 319 322 322 323 325 327 326 325 325 324 324 324 324 325 325 323 322 323 321 321 321 318 317 314 313 313 312 313 317 318 319
319 320 322 322 322 323 323 323 323 324 323 323 324 324 324 323 325 325 325 322 321 320 318 315 315 315 315 312 312 313 315 317
321 320 321 322 320 320 319 318 321 321 322 322 323 323 324 324 324 324 325 323 321 319 317 316 314 315 310 309 310 311 312 311
321 320 321 321 321 321 321 319 320 321 322 322 322 322 322 322 323 322 324 322 321 318 318 316 316 315 310 310 306 309 309 310
319 319 320 322 322 321 321 320 319 318 319 319 320 321 323 322 323 323 323 322 320 318 318 316 315 316 314 312 307 304 307 310
320 320 320 322 322 319 319 317 315 316 318 319 320 322 322 321 321 320 321 320 319 319 320 318 318 314 316 319 317 314 308 306
319 320 320 321 321 320 318 317 318 318 317 317 319 320 322 321 321 319 318 319 319 320 320 319 318 316 314 314 314 314 314 310
320 319 319 321 321 320 318 317 316 315 315 315 316 318 320 320 320 319 318 318 320 321 320 320 318 317 317 316 313 311 311 309
320 319 317 320 320 319 318 318 316 315 313 312 314 316 317 318 318 319 319 319 320 321 321 320 319 317 317 316 318 316 316 316
319 319 319 319 320 319 320 319 317 315 314 312 313 316 318 320 319 321 319 319 322 320 320 320 319 318 317 317 317 316 317 317

GFSFLT2_sfc_thetae_078.txt.gz
Theta_e
338 340 344 344 342 340 334 333 334 332 330 330 331 338 340 343 343 342 341 340 340 338 336 334 334 332 332 330 328 327 321 322
336 339 336 334 335 336 333 335 335 334 332 329 330 337 338 340 340 340 339 339 338 337 334 333 332 331 330 328 327 327 319 318
335 334 334 331 329 332 335 335 333 333 332 330 333 333 335 336 337 337 337 336 336 335 333 331 330 330 329 328 326 321 320 320
330 331 330 330 330 330 328 330 330 329 328 326 333 333 335 334 335 335 334 334 334 333 330 329 324 323 324 325 320 320 320 320
329 329 329 328 328 326 325 325 327 327 327 325 333 333 333 333 331 331 330 331 328 326 324 318 317 317 319 318 319 319 320 321
325 326 328 328 327 326 326 324 327 327 327 325 326 331 330 329 328 328 327 325 322 319 316 315 315 317 319 318 319 319 319 320
322 324 325 330 327 327 327 323 325 326 326 327 325 330 328 327 326 324 321 319 318 316 315 315 315 317 319 318 318 318 319 320
319 319 323 329 330 327 327 324 325 325 331 328 328 329 326 324 322 320 318 316 315 313 313 312 313 316 318 318 318 318 319 318
317 317 319 323 328 330 329 327 328 328 331 331 329 325 323 323 320 319 318 314 311 313 314 312 311 316 318 317 318 318 318 318
318 321 318 324 324 328 329 330 328 328 330 330 327 324 323 319 317 318 317 315 314 314 315 312 312 314 316 317 316 317 317 317
316 317 320 322 324 327 327 329 328 329 329 328 327 324 321 317 316 319 317 315 315 316 315 313 312 311 315 315 316 315 315 318
316 318 320 322 324 325 326 326 326 326 327 326 326 325 322 319 319 321 318 317 317 317 315 314 313 312 315 313 314 315 315 315
316 317 321 321 321 320 321 320 322 323 324 324 324 324 324 321 319 322 320 319 319 318 315 313 311 311 309 308 309 312 314 315
318 318 320 320 320 321 320 321 322 322 323 322 323 323 322 322 321 322 323 320 318 315 315 313 312 312 309 307 303 307 310 311
318 319 319 319 320 320 320 319 319 320 320 320 321 322 322 322 322 322 323 321 318 315 314 315 312 311 312 309 305 303 307 308
318 319 320 320 320 319 318 317 315 318 319 320 319 321 322 321 322 322 321 321 319 319 318 314 314 312 312 316 315 312 306 305
319 319 320 321 320 318 318 317 317 318 319 318 318 319 321 320 321 321 321 320 319 319 319 317 315 314 311 313 314 313 312 307
318 318 319 321 320 319 318 316 316 316 316 316 317 318 320 320 320 320 321 320 318 319 321 318 316 316 314 314 313 311 309 308
318 319 318 319 320 319 318 316 317 316 315 316 315 316 317 319 318 318 319 320 320 320 320 317 315 314 316 315 315 314 314 312
316 318 318 319 320 319 319 318 317 317 316 314 315 317 318 320 319 319 318 318 319 320 319 318 318 317 314 315 316 316 316 316

GFSFLT2_sfc_thetae_081.txt.gz
Theta_e
338 343 345 343 342 340 339 335 333 333 332 332 335 336 337 339 342 341 342 342 341 340 338 335 337 335 333 330 328 328 320 320
335 338 343 344 341 335 335 333 333 333 333 331 329 333 336 338 338 339 340 340 339 337 334 334 335 333 331 329 328 326 319 318
332 333 335 337 337 335 335 335 334 334 332 332 329 331 333 335 335 337 338 338 336 335 332 332 331 331 330 328 326 320 319 317
330 329 331 329 334 334 333 333 333 331 330 328 329 330 332 333 334 334 335 335 334 333 331 331 329 325 326 325 320 319 319 319
327 328 328 327 330 331 331 331 329 327 326 327 331 332 332 332 333 332 332 333 329 327 326 324 323 322 318 318 319 319 319 319
326 327 329 328 327 327 328 327 328 326 324 325 331 330 330 331 331 330 328 326 321 322 318 317 320 319 317 317 318 319 319 319
322 323 327 328 327 325 325 325 326 327 325 324 330 327 328 331 329 328 326 322 320 315 314 316 317 317 318 318 318 318 318 319
320 321 323 329 326 325 324 324 325 325 325 324 328 330 330 328 327 324 322 322 319 315 314 314 316 317 316 318 318 318 318 317
318 318 322 328 327 326 326 324 325 325 325 325 325 330 329 327 325 321 320 318 315 313 311 312 315 317 316 317 318 318 317 317
316 319 318 324 328 328 327 324 325 325 329 328 326 329 328 325 322 319 319 314 313 314 311 310 315 316 315 315 316 317 316 316
315 315 316 322 325 328 329 325 326 327 330 328 326 325 325 322 320 317 317 314 314 314 312 311 312 314 315 314 315 315 315 317
316 316 320 322 324 326 327 327 326 328 329 328 325 323 321 318 317 315 315 313 313 314 314 311 313 314 316 313 312 313 313 313
316 317 319 321 322 321 322 322 325 327 328 327 324 322 319 316 317 315 315 312 314 316 314 311 309 312 310 308 309 313 313 313
315 316 319 318 321 321 321 322 323 325 325 326 326 322 318 317 318 315 316 314 315 315 313 310 309 310 309 307 304 307 309 312
316 316 317 319 321 320 320 320 321 320 321 323 323 323 322 317 319 318 318 318 317 316 314 312 310 309 311 307 303 302 307 307
317 315 318 320 320 319 319 318 316 319 320 321 321 322 322 321 320 322 320 319 318 317 316 315 313 310 308 313 311 310 304 303
317 316 318 320 319 319 318 316 317 319 320 319 319 320 321 321 322 321 321 321 320 318 316 315 313 311 308 311 312 311 310 307
315 316 317 319 319 318 317 317 316 317 317 317 317 318 320 320 321 321 321 320 320 319 319 316 315 314 312 312 311 310 309 307
315 315 316 319 317 317 317 317 316 315 316 317 317 317 318 319 319 320 320 320 319 319 319 318 316 313 313 313 314 313 312 311
315 315 317 319 319 318 317 317 317 316 315 317 317 317 318 320 319 319 320 320 318 318 318 318 317 316 315 314 315 314 314 314

GFSFLT2_sfc_thetae_084.txt.gz
Theta_e
340 342 344 342 342 341 340 340 339 339 339 339 340 340 340 340 342 342 340 341 341 340 339 338 337 336 334 332 330 328 322 327
338 341 343 343 342 337 336 335 335 335 336 335 335 334 335 337 339 339 340 340 340 339 336 337 335 334 332 329 328 326 320 322
334 338 341 342 338 337 336 335 334 333 333 332 330 331 331 332 336 337 336 337 338 335 336 335 333 331 330 328 325 319 319 319
331 334 336 337 337 336 334 332 331 331 330 329 328 330 329 330 334 333 335 335 334 333 334 332 329 326 326 325 320 319 320 320
329 330 332 331 332 334 333 333 331 331 329 329 328 328 330 331 332 332 332 333 328 328 330 325 323 323 318 319 319 319 319 320
328 331 328 330 331 332 331 332 331 329 329 327 327 327 329 329 330 330 330 329 323 324 324 321 320 318 318 319 319 319 319 320
325 329 329 329 328 329 329 329 330 328 326 327 328 327 328 327 330 329 329 324 320 318 318 320 317 316 317 319 318 318 319 320
323 326 329 328 327 327 326 327 327 327 325 326 329 329 329 328 329 327 325 324 318 315 317 318 317 317 316 317 318 319 319 319
321 321 325 327 326 326 325 325 325 325 325 323 329 328 328 329 327 324 323 322 317 314 313 315 316 316 316 316 317 319 319 318
318 321 325 326 326 326 325 324 324 325 325 324 327 328 329 328 326 323 323 320 316 314 315 314 314 315 313 314 316 317 317 317
316 316 322 326 326 326 326 324 324 324 326 325 325 328 329 328 326 322 318 317 316 313 311 315 314 314 314 313 314 314 315 317
317 314 317 323 326 328 327 324 324 325 326 327 326 326 328 327 323 319 319 317 315 313 312 313 315 314 315 312 312 313 314 314
317 315 315 320 321 323 324 323 323 324 327 328 327 326 327 323 319 316 317 316 314 313 313 312 311 313 311 308 309 311 313 313
317 317 317 321 318 322 323 323 325 325 326 325 323 322 321 319 316 316 314 314 314 314 312 309 310 314 309 308 305 308 311 313
315 316 317 319 321 321 321 321 321 323 324 323 321 320 318 318 316 315 313 314 313 314 312 311 311 310 314 309 304 304 308 310
316 316 317 318 320 320 319 318 318 319 322 323 320 319 318 318 316 314 314 314 314 315 315 313 313 309 309 312 311 309 306 303
316 315 315 319 319 320 319 318 318 320 321 320 321 320 318 319 320 317 316 316 317 316 315 314 313 311 310 311 311 311 310 306
316 315 316 318 319 319 318 316 317 318 318 318 319 320 319 319 320 320 320 318 318 317 316 315 313 312 312 312 311 310 309 308
314 315 315 318 316 317 317 317 316 318 317 317 318 318 318 319 319 318 320 319 319 318 317 316 314 313 311 312 313 313 313 311
314 313 314 317 318 317 317 317 317 318 318 318 318 319 319 320 320 321 320 319 319 319 319 318 316 315 313 312 313 314 314 313

GFSFLT2_sfc_thetae_087.txt.gz
Theta_e
342 344 346 342 342 342 342 343 344 344 342 343 343 341 341 342 342 341 342 343 342 342 341 340 339 337 335 333 331 334 337 337
341 343 345 346 345 339 340 340 340 339 339 338 337 338 340 340 340 341 341 342 341 340 339 338 337 335 333 331 329 330 334 334
341 343 345 346 344 341 339 339 338 337 338 335 333 340 339 338 337 337 337 338 338 338 337 335 334 332 331 329 328 332 332 332
338 341 343 345 340 339 340 341 341 339 338 337 339 338 337 335 335 334 335 336 336 336 334 333 333 334 330 327 330 330 331 330
335 338 341 340 338 337 336 335 336 338 333 332 335 335 333 332 334 333 334 334 332 336 334 334 334 333 331 330 329 330 329 329
334 336 336 337 337 337 335 332 332 332 334 330 331 331 329 329 335 335 332 331 331 334 334 333 332 331 330 329 329 328 327 327
335 334 334 333 333 335 334 333 331 332 332 330 330 330 328 331 333 333 330 328 328 332 331 330 330 328 328 328 327 327 326 326
337 332 333 333 332 333 332 333 333 331 331 330 329 330 329 331 335 330 330 326 328 330 329 329 328 327 326 327 326 326 326 327
334 332 333 332 331 331 330 330 331 328 328 329 329 330 331 332 330 330 328 325 326 329 329 328 325 324 325 325 325 326 325 326
332 330 329 331 332 330 329 328 328 328 327 328 330 330 332 330 329 328 327 324 326 325 325 323 324 323 321 323 322 324 326 326
329 330 327 329 331 330 328 327 326 326 327 326 329 329 330 329 328 327 324 321 325 324 323 324 322 322 322 322 323 323 325 324
329 328 327 331 331 329 328 326 326 326 326 327 329 328 330 329 327 323 324 324 322 322 322 323 323 322 320 321 322 324 324 324
326 326 325 327 327 325 324 323 324 324 326 327 326 328 329 328 325 322 323 324 322 322 322 321 321 323 320 319 320 322 322 323
323 325 324 324 327 327 327 326 326 326 326 327 327 326 328 325 322 321 322 324 322 320 321 320 320 321 318 317 311 315 320 320
321 324 324 324 324 324 325 325 325 325 324 325 326 326 327 324 322 322 324 323 320 321 321 321 316 320 322 319 313 312 315 319
322 323 323 324 325 323 322 320 320 321 324 323 321 323 324 321 322 322 321 320 321 320 320 320 321 318 320 319 322 320 315 313
319 321 320 321 322 323 321 320 321 323 323 320 318 318 319 319 320 319 318 319 320 319 317 320 323 321 318 318 318 319 319 316
318 317 320 319 320 322 322 321 321 320 320 318 317 316 318 317 317 317 317 319 319 320 320 320 320 321 321 321 318 316 314 316
317 316 319 319 320 321 322 322 322 321 318 319 317 316 317 319 318 318 319 320 318 318 321 319 318 318 318 319 320 320 320 319
317 316 317 318 319 320 320 321 321 320 320 319 320 318 317 318 317 317 319 320 319 319 319 320 318 320 319 320 320 320 320 319

GFSFLT2_sfc_thetae_090.txt.gz
Theta_e
349 348 346 342 342 343 343 343 344 345 346 345 345 343 342 344 343 345 344 344 344 343 342 341 340 338 336 335 334 337 338 337
349 347 348 349 349 340 341 342 342 343 341 341 341 340 341 342 342 342 343 343 343 342 339 339 338 336 334 333 333 335 336 336
349 347 349 348 350 348 342 342 341 339 340 337 338 348 346 343 338 337 338 339 340 340 338 337 335 334 333 332 332 336 335 334
344 349 348 347 347 350 348 348 348 349 347 346 348 345 343 339 336 335 336 336 337 337 335 333 335 337 336 332 336 336 334 332
341 346 347 348 347 346 347 348 348 346 346 346 344 342 340 339 337 337 338 335 336 335 334 338 337 337 337 336 334 336 332 333
342 343 345 345 347 343 343 343 345 343 344 342 340 337 338 337 332 333 335 336 334 332 334 338 336 335 335 335 335 333 332 331
344 342 343 343 342 340 339 340 340 341 341 341 338 335 335 335 331 333 337 334 332 331 333 335 335 334 335 334 333 331 331 329
345 340 341 341 340 340 337 338 338 339 340 336 340 333 333 333 333 335 336 334 332 331 332 334 333 334 333 333 331 330 330 328
342 341 339 337 338 339 339 339 338 336 336 333 335 332 332 332 332 331 335 333 329 330 333 334 332 332 331 331 330 329 327 327
340 340 338 338 335 335 336 338 337 335 334 333 330 330 331 336 330 330 333 330 328 328 332 331 330 330 329 329 327 326 326 327
337 342 337 337 335 333 335 336 334 333 330 330 330 329 331 332 332 330 329 327 325 328 329 330 328 328 327 327 327 326 326 325
335 339 337 335 335 336 335 334 332 332 329 329 329 330 331 330 329 328 327 324 324 326 328 330 329 327 324 324 327 326 327 324
332 336 333 333 333 332 331 329 329 328 328 328 328 329 329 330 328 326 324 323 323 328 328 328 327 328 323 321 323 324 324 325
331 335 330 334 336 335 332 329 329 329 328 327 328 328 330 329 326 325 324 322 322 328 328 326 326 327 321 320 314 317 321 323
330 333 332 335 335 333 331 330 328 328 326 325 326 328 329 328 325 324 324 323 322 327 329 327 323 325 326 321 315 313 318 322
330 332 334 333 334 331 329 327 323 326 325 327 327 326 327 325 325 324 324 324 324 327 330 328 327 322 324 324 324 322 316 314
330 332 332 332 331 331 328 325 326 329 329 325 325 326 325 324 324 324 323 323 326 329 329 328 326 325 323 323 324 324 324 318
327 330 330 330 330 329 328 326 324 326 323 322 320 319 323 322 323 323 323 323 325 326 326 329 328 328 325 324 322 320 320 319
323 327 327 328 328 327 326 325 326 326 321 318 317 316 316 317 319 319 320 323 326 325 326 327 326 326 327 325 325 323 322 322
320 323 326 325 325 324 325 327 326 326 322 320 316 317 316 317 317 318 319 321 323 324 325 323 324 325 325 326 325 325 324 322

GFSFLT2_sfc_thetae_093.txt.gz
Theta_e
352 349 347 343 343 345 343 345 347 346 346 347 346 345 344 346 346 345 344 346 345 344 343 342 341 338 339 337 336 335 340 337
352 351 350 349 349 342 342 342 343 345 344 341 342 342 342 342 342 344 343 344 343 342 341 340 339 336 337 335 334 336 336 336
352 351 350 350 349 347 343 343 342 342 343 340 339 348 347 345 341 339 340 340 339 339 337 337 336 335 333 333 333 336 336 335
351 351 350 350 346 350 348 348 348 348 348 348 349 347 347 342 339 335 336 337 337 337 335 334 335 338 337 333 336 336 333 333
348 350 351 350 347 347 346 347 346 347 349 346 346 345 346 346 340 337 336 336 338 336 334 336 339 339 338 338 336 333 332 331
349 348 349 350 348 345 345 344 347 346 347 350 347 345 345 342 338 338 336 334 337 334 334 334 336 337 338 336 334 332 333 331
347 345 348 348 350 347 346 346 345 347 347 346 345 342 341 340 335 336 337 335 332 331 332 332 332 334 335 335 332 334 331 331
348 347 347 347 347 346 346 345 344 345 344 345 345 343 340 337 335 334 334 334 332 331 331 330 330 331 334 332 331 331 330 329
345 350 345 346 344 344 343 343 343 341 343 345 343 342 340 337 333 333 337 333 335 331 330 330 329 331 330 331 330 329 327 327
334 343 343 343 342 343 342 342 343 342 340 342 341 340 337 335 331 334 333 332 332 329 328 327 327 328 328 328 328 328 327 326
331 342 343 339 340 342 341 341 340 341 341 339 338 337 336 333 336 332 332 329 329 330 327 327 326 328 326 328 327 324 325 324
330 339 344 339 339 338 337 338 338 336 336 337 335 335 334 335 332 330 333 328 327 328 326 326 327 326 324 324 325 325 324 324
329 335 343 338 334 332 333 332 332 333 333 333 334 333 331 331 330 330 330 325 326 326 326 324 324 330 324 322 325 327 326 323
329 332 338 337 334 336 338 335 334 333 333 331 332 331 331 329 330 328 327 325 324 324 324 322 323 327 322 321 316 318 322 324
327 331 336 337 338 338 336 335 331 329 330 331 331 331 330 329 329 327 325 324 324 324 325 323 322 325 326 320 314 311 317 322
329 331 336 334 338 336 334 328 325 328 330 330 328 328 328 328 328 326 324 325 323 323 325 324 325 321 325 326 325 322 315 313
330 331 334 335 338 336 334 331 331 330 330 330 329 327 327 327 326 325 324 323 324 324 324 326 326 325 324 324 325 323 324 318
331 331 332 334 335 335 334 332 330 326 329 329 327 326 325 325 325 325 324 324 324 324 326 326 326 328 327 326 323 319 319 319
330 330 331 333 333 333 333 331 329 327 327 328 323 321 322 323 323 323 323 323 324 324 325 328 329 328 328 324 326 325 325 322
326 329 329 331 332 332 331 330 327 328 328 326 322 319 320 322 323 323 323 323 323 325 326 328 328 327 325 325 325 327 325 323

GFSFLT2_sfc_thetae_099.txt.gz
Theta_e
341 342 345 344 344 344 344 345 346 345 347 347 347 346 345 346 346 346 347 346 344 344 344 343 343 341 338 336 335 337 335 336
339 339 340 340 342 341 342 343 343 344 346 345 344 343 343 344 342 343 343 345 345 342 341 340 339 337 334 335 334 335 333 333
340 340 339 339 339 341 342 343 343 343 345 343 340 342 341 342 341 341 341 341 339 340 339 337 335 334 332 331 334 333 331 331
340 340 339 340 344 340 338 341 342 344 345 344 340 340 340 342 339 337 337 337 337 337 336 336 336 334 332 331 330 331 331 331
341 342 341 340 340 339 340 340 340 340 341 341 340 341 338 335 333 334 334 336 334 332 332 334 334 334 333 330 330 330 330 331
342 342 342 341 339 339 339 340 339 340 341 340 340 336 334 333 332 332 332 332 331 330 331 333 333 335 333 331 329 329 329 330
342 341 342 343 338 340 338 339 339 339 339 339 339 335 335 333 331 331 331 331 329 328 329 328 329 331 332 331 328 328 329 330
342 341 342 342 342 338 338 338 338 339 339 340 337 336 336 334 331 330 329 330 329 330 327 327 328 330 330 330 330 328 329 329
340 341 343 342 341 339 337 337 338 338 339 339 337 337 335 333 332 330 331 330 330 329 328 327 327 329 328 329 329 329 328 328
340 342 341 342 341 340 338 336 335 334 337 338 336 335 335 332 331 329 330 330 330 329 328 326 325 326 326 326 327 328 327 326
335 341 340 340 339 340 337 336 334 333 333 336 336 335 334 332 331 331 331 330 329 328 327 326 324 325 325 325 326 324 324 325
329 341 339 339 339 336 334 335 337 334 331 333 335 335 333 330 329 329 329 328 328 328 327 327 326 325 326 324 325 323 323 322
324 339 338 339 336 333 332 332 334 335 335 332 335 336 334 332 331 330 330 328 326 327 326 325 323 325 321 320 320 320 319 321
324 339 338 338 337 335 333 333 333 333 334 334 334 333 333 332 330 329 329 327 327 326 325 323 323 324 318 317 312 315 315 319
329 338 338 337 335 333 330 329 331 330 330 331 331 332 332 331 330 329 329 328 326 326 324 323 320 322 322 316 310 308 312 315
329 338 336 335 334 332 329 328 326 329 330 330 330 331 330 330 330 328 328 327 326 326 325 324 322 319 322 322 316 315 309 309
323 336 335 334 333 331 329 327 327 329 328 327 328 328 329 328 328 328 327 327 326 325 325 323 323 321 320 319 315 315 313 311
314 330 335 333 331 329 328 327 326 325 324 324 326 326 327 327 328 327 327 327 325 325 325 323 323 322 322 320 316 313 312 311
316 321 332 331 329 329 329 328 327 323 322 323 322 323 324 324 326 325 326 326 325 325 325 324 323 321 321 320 319 317 317 314
317 325 329 329 329 328 328 329 329 327 324 324 323 323 323 323 324 326 326 326 325 325 325 324 323 322 321 321 320 318 318 318

GFSFLT2_sfc_thetae_102.txt.gz
Theta_e
340 343 345 344 343 343 343 345 346 346 346 347 347 346 345 347 347 347 347 346 346 345 344 343 343 341 339 336 335 336 333 335
339 340 342 343 341 341 342 343 342 342 345 345 343 343 344 344 344 344 344 343 344 342 341 340 341 338 337 334 334 335 334 334
338 338 339 339 341 342 342 344 342 342 343 343 341 343 342 342 341 341 341 342 339 340 339 338 336 335 335 332 331 331 332 332
337 337 337 338 342 338 337 341 340 342 342 342 342 340 339 341 340 338 338 337 338 337 337 336 335 334 334 333 331 329 329 330
337 337 337 338 339 340 338 339 340 341 342 342 339 340 338 337 335 334 334 335 333 333 331 330 332 332 330 332 330 330 328 330
338 338 338 338 338 338 338 339 338 339 340 341 341 338 333 333 333 332 332 332 329 327 326 328 330 332 331 330 330 330 328 330
339 339 338 339 338 337 337 337 338 338 338 339 340 336 333 332 331 331 331 331 328 326 327 327 328 331 331 330 330 330 329 329
340 340 340 340 338 337 336 337 337 337 338 339 339 337 333 331 330 330 331 330 327 327 327 326 325 328 328 330 329 329 329 329
340 339 341 340 339 338 337 337 337 337 337 337 338 336 333 331 330 329 330 330 327 326 325 328 327 328 328 329 329 328 329 329
340 342 339 339 340 338 338 337 337 337 337 337 335 336 334 331 329 328 329 330 328 328 327 326 326 326 326 327 328 328 328 328
336 339 338 338 339 339 338 336 336 336 336 337 334 334 334 332 330 329 330 330 329 328 327 325 323 324 325 326 326 326 327 328
331 337 338 339 339 338 334 334 334 335 335 336 333 334 332 331 329 329 330 328 328 328 326 326 324 324 325 325 325 324 325 325
320 334 337 339 337 335 332 333 333 332 333 334 334 332 331 330 329 329 330 329 328 328 326 325 324 325 323 321 322 321 323 323
315 332 336 338 337 337 335 335 332 333 333 334 336 335 333 331 330 330 330 328 327 326 325 324 324 325 320 318 313 315 317 321
314 329 335 338 338 336 330 331 328 327 331 333 333 334 333 332 331 330 329 329 326 326 325 324 321 323 322 317 311 309 313 317
313 326 335 337 337 334 331 330 328 330 331 332 332 332 332 331 330 329 329 329 327 326 326 325 323 319 320 321 319 315 311 309
325 331 335 336 335 333 331 329 329 326 328 329 329 330 330 329 330 328 328 328 327 327 326 324 324 321 320 319 318 314 315 313
319 334 334 334 334 332 330 328 326 326 327 327 327 328 329 329 328 328 328 328 327 326 326 324 323 321 322 320 317 313 312 312
312 333 333 333 332 331 329 327 326 325 325 325 325 325 326 327 327 326 327 327 326 326 325 324 323 322 321 321 320 317 316 314
316 324 331 330 329 328 328 327 326 326 325 323 324 324 323 325 326 326 326 326 326 326 325 324 324 323 321 322 320 318 317 316

GFSFLT2_sfc_thetae_105.txt.gz
Theta_e
342 344 345 344 343 343 342 344 345 346 346 347 348 347 346 347 347 347 348 347 345 345 343 342 342 341 338 336 335 336 332 333
340 342 344 343 342 341 341 342 343 343 345 344 343 343 344 345 344 345 345 343 343 344 342 341 341 339 336 335 334 335 331 331
338 340 341 342 342 342 342 343 342 342 343 342 340 343 343 343 342 341 341 341 341 342 340 339 338 337 335 335 335 332 331 331
335 338 338 338 340 342 343 344 341 340 342 342 343 340 340 341 340 339 339 338 339 339 337 336 335 333 332 334 333 332 330 330
334 336 337 337 338 340 340 340 337 337 337 338 342 340 338 339 336 336 336 337 333 334 333 332 330 331 331 331 330 332 331 330
335 335 336 337 338 339 339 340 336 337 338 339 340 339 338 336 335 332 332 332 329 328 327 327 329 329 330 330 329 330 329 330
334 335 335 336 336 337 337 338 338 338 338 339 340 340 338 335 332 332 331 329 328 326 326 325 326 327 328 330 329 329 330 330
336 335 335 336 335 335 335 337 337 336 337 338 339 340 337 334 332 332 332 329 327 327 325 325 325 326 326 328 329 329 330 330
337 337 337 335 335 335 335 336 336 335 336 338 339 338 333 332 332 331 332 329 326 325 323 324 326 325 325 327 328 329 329 329
336 340 338 336 336 336 335 335 335 335 336 337 339 337 333 330 330 331 332 329 326 325 324 324 326 326 325 326 327 328 328 329
324 338 338 338 337 336 336 335 335 335 335 336 337 336 333 331 329 330 330 329 327 325 325 325 324 325 325 325 326 327 327 329
310 334 338 339 338 336 335 334 335 335 335 335 334 335 332 331 329 329 329 328 328 327 325 325 324 324 325 324 325 326 327 327
308 324 336 337 337 335 333 332 334 333 335 335 333 334 332 331 330 329 329 327 327 328 326 324 323 324 322 322 323 325 325 326
306 322 333 336 337 337 335 334 334 334 334 334 334 333 332 332 331 329 329 328 327 327 326 324 324 324 320 318 313 315 320 324
304 318 328 335 337 336 329 328 329 330 331 333 334 333 332 331 331 330 330 329 327 327 326 324 321 324 324 318 312 309 314 319
304 311 327 333 336 334 331 330 329 331 332 333 334 334 333 332 330 330 330 329 328 327 327 325 324 320 323 323 318 316 311 309
313 308 323 331 335 335 332 329 330 328 330 330 331 332 331 332 330 329 329 329 328 327 326 325 325 323 321 320 319 317 316 312
313 321 325 332 334 334 331 330 328 327 328 329 329 329 330 330 330 330 329 328 327 327 327 325 324 324 323 321 319 315 313 313
307 320 329 332 333 333 332 330 327 327 327 328 328 327 327 328 329 328 328 328 328 327 326 325 324 323 323 321 321 318 318 317
301 306 311 333 333 332 332 328 327 327 327 328 326 326 328 328 328 328 328 327 327 327 326 326 325 324 322 322 321 320 318 317

GFSFLT2_sfc_thetae_108.txt.gz
Theta_e
343 343 344 343 343 343 342 344 345 345 346 347 348 346 346 347 347 347 347 346 346 345 343 342 343 341 339 337 336 336 334 334
341 342 341 341 342 341 341 342 342 343 344 344 343 343 344 345 345 345 345 345 345 343 342 341 341 338 337 335 334 335 333 333
339 339 341 339 341 342 342 343 342 342 343 342 339 343 342 343 342 342 343 342 342 342 340 339 338 337 336 335 335 333 332 332
336 337 339 341 341 342 343 344 344 344 344 342 342 339 339 342 341 339 339 339 340 339 339 337 336 332 334 335 333 332 332 331
333 336 338 338 339 340 341 342 341 340 341 342 343 340 337 339 338 339 336 338 337 337 336 335 332 331 330 330 331 330 331 333
331 333 335 336 337 338 338 339 338 337 337 339 340 339 338 336 336 334 334 334 331 332 332 330 330 330 330 329 329 330 330 331
333 332 334 334 336 337 337 337 339 337 336 336 338 339 339 338 335 334 332 330 329 328 327 328 326 328 329 329 328 329 329 330
335 333 333 334 335 334 335 337 338 337 336 335 337 339 339 337 334 334 331 330 328 328 327 327 326 326 326 327 327 329 330 330
332 335 334 333 334 332 333 334 336 336 335 334 337 338 338 336 334 334 333 328 325 324 323 323 323 325 325 326 327 329 329 329
318 336 334 334 334 333 332 332 333 333 334 335 338 337 337 335 333 333 333 329 326 325 323 323 323 324 325 324 325 327 328 328
307 329 334 334 334 334 332 333 333 334 334 334 335 337 336 334 333 332 332 329 327 326 323 323 323 324 326 326 327 327 328 329
303 316 334 335 335 334 334 333 333 334 334 334 335 335 335 334 332 331 330 328 327 326 324 326 325 325 325 324 326 326 327 327
301 303 318 334 335 333 333 331 332 333 334 334 335 335 334 333 331 330 329 328 327 326 326 324 322 324 322 321 323 325 326 326
299 301 305 331 333 335 334 334 334 335 334 334 334 334 334 333 331 330 328 328 327 327 326 323 323 323 318 319 314 317 322 325
304 300 306 326 332 335 333 333 332 331 331 332 333 334 333 333 332 330 329 328 327 327 327 325 322 323 324 318 312 311 314 319
307 312 306 325 333 334 332 330 328 330 331 332 333 333 333 333 332 331 329 329 328 327 328 326 324 321 322 323 318 317 312 309
303 307 312 317 331 332 332 330 330 330 332 331 331 332 333 332 332 331 330 330 329 328 327 326 325 323 322 321 321 317 317 313
301 307 314 314 330 332 331 329 328 327 330 329 329 332 331 332 331 330 330 330 329 328 327 326 325 324 324 322 321 318 314 314
299 303 309 322 328 331 331 329 328 327 328 329 328 328 329 330 330 329 329 330 329 328 326 326 325 324 323 323 322 321 320 317
296 300 303 308 326 331 332 329 327 327 328 329 329 327 329 329 329 329 329 329 328 328 327 326 326 325 324 323 323 322 322 319

GFSFLT2_sfc_thetae_111.txt.gz
Theta_e
348 347 347 344 343 343 342 344 344 346 346 347 348 347 347 348 348 348 348 347 346 345 344 343 343 342 340 337 336 338 345 344
347 346 346 349 351 341 341 342 342 344 345 345 344 344 345 345 345 346 347 346 345 344 342 342 341 339 338 336 335 337 345 344
344 344 344 348 350 348 343 343 342 342 344 343 341 352 351 350 346 343 344 343 343 342 341 340 338 338 337 336 335 343 345 344
338 340 341 345 346 347 349 348 348 348 349 350 351 351 351 349 345 339 340 340 340 340 339 338 338 343 342 337 342 343 343 343
337 337 340 342 342 342 344 345 345 345 346 347 348 347 349 349 349 348 349 341 346 342 342 343 344 343 343 343 343 343 342 342
340 340 338 339 340 340 342 343 343 341 342 344 344 342 344 345 346 347 347 347 347 345 344 344 344 342 342 342 342 342 342 341
339 340 340 338 337 338 339 340 340 340 341 342 342 340 340 342 344 345 346 346 344 343 342 342 342 341 341 341 340 341 340 340
342 339 340 340 337 337 338 339 340 340 342 345 342 342 341 341 340 342 343 343 343 342 341 340 340 340 339 340 339 340 340 340
331 341 341 339 339 339 338 339 339 338 342 346 345 345 343 341 339 339 341 341 341 340 340 340 339 339 338 338 338 339 338 337
316 329 340 340 340 340 340 340 341 341 343 343 345 345 344 341 337 337 340 338 338 337 337 337 337 336 336 336 337 337 337 335
313 318 334 340 341 341 340 340 340 341 342 342 342 343 340 339 338 336 337 335 334 335 335 336 334 333 333 334 335 333 333 334
311 313 320 336 340 341 340 339 340 340 339 338 339 339 337 338 338 335 335 333 331 331 332 333 334 334 331 332 333 331 334 332
306 309 314 326 333 334 333 331 334 337 337 338 338 337 336 337 338 333 334 332 330 329 330 329 328 330 327 326 327 331 329 330
314 313 309 312 329 335 335 334 334 337 336 336 336 336 336 335 335 333 332 332 330 329 328 326 327 328 324 323 319 323 328 330
309 312 315 316 315 331 337 338 338 333 333 334 334 335 335 334 334 333 332 332 329 329 329 327 324 325 328 324 317 315 320 326
307 308 310 315 319 321 333 331 329 331 333 334 334 334 335 334 333 333 331 331 331 330 330 329 328 323 325 326 330 326 319 315
301 304 308 314 318 322 333 333 334 335 336 336 334 333 334 333 333 332 331 332 332 330 330 329 330 327 324 324 326 324 322 318
298 300 304 312 320 321 332 334 333 333 335 332 332 333 332 333 332 332 332 331 331 330 330 330 328 327 327 327 323 321 317 317
295 298 299 305 312 320 332 335 336 335 334 334 331 330 330 330 332 331 331 331 331 331 330 329 328 327 327 326 326 325 323 320
292 297 297 302 307 316 330 331 331 334 335 335 334 333 331 332 331 331 331 331 331 331 330 329 329 327 327 327 326 325 324 322

GFSFLT2_sfc_thetae_114.txt.gz
Theta_e
354 351 350 344 344 344 343 345 346 347 348 348 349 348 347 348 349 349 349 347 347 347 345 344 344 343 341 339 338 340 344 344
354 351 352 353 353 342 342 342 343 344 346 346 345 345 346 347 347 347 347 346 346 345 343 343 343 341 339 337 337 338 345 343
350 348 349 352 354 350 343 343 343 343 345 344 344 353 353 352 347 344 345 344 344 343 342 341 340 339 338 337 337 344 343 342
346 348 346 348 350 353 352 351 349 350 350 352 352 352 351 350 346 341 340 340 341 340 340 338 339 345 343 338 344 342 342 341
346 345 347 348 350 348 349 349 350 350 352 352 351 350 351 351 350 350 351 343 348 343 344 345 344 343 342 343 342 343 341 341
345 348 347 349 348 344 346 350 348 347 349 352 350 349 350 349 348 349 348 350 348 346 344 344 344 343 343 343 343 342 339 343
343 346 346 347 347 345 344 347 347 349 348 347 350 349 347 347 348 347 348 347 348 345 344 343 342 342 342 343 342 342 341 342
324 341 346 346 345 346 346 347 347 346 345 346 347 348 347 344 346 347 347 346 347 346 345 344 342 342 341 340 341 342 342 341
318 326 340 346 345 345 345 345 345 344 342 347 345 345 348 344 343 345 345 348 346 346 344 343 341 341 340 339 341 341 340 340
316 317 326 341 345 344 343 344 344 343 343 347 349 344 346 345 343 343 346 347 345 344 342 340 340 339 339 338 338 339 339 340
314 317 319 332 340 344 345 345 344 343 344 345 347 348 348 347 344 342 345 342 343 342 341 341 338 337 336 337 339 337 339 337
317 316 317 320 333 340 340 343 344 344 343 344 346 347 348 347 344 344 342 338 339 341 340 340 339 337 336 335 337 338 339 337
318 319 322 316 317 328 331 336 339 342 343 344 345 347 347 345 342 343 339 337 337 339 338 337 338 339 334 333 335 335 335 335
314 315 317 320 319 317 330 334 336 338 343 345 345 344 345 345 343 340 337 336 335 336 335 332 333 335 329 328 323 328 332 334
309 311 313 315 318 322 319 331 334 335 339 342 344 343 343 345 342 339 337 337 333 333 335 332 328 330 336 329 323 320 324 331
306 308 309 312 316 318 320 320 326 333 335 338 341 344 342 342 341 339 337 336 333 333 335 335 332 326 329 334 333 329 321 319
301 304 305 309 313 316 319 319 330 332 336 337 339 339 338 338 339 339 336 337 334 333 333 334 333 330 327 328 331 331 329 323
298 299 301 303 306 312 317 322 325 330 332 335 337 337 335 335 336 336 336 335 334 333 333 334 333 332 329 333 330 327 326 323
294 294 295 297 301 305 311 320 325 333 332 335 335 333 332 333 334 333 334 335 334 332 332 333 332 330 333 333 333 329 328 327
292 291 291 294 298 302 307 317 327 332 334 334 336 334 333 334 334 334 334 335 334 334 332 331 332 332 334 334 333 331 332 330

GFSFLT2_sfc_thetae_120.txt.gz
Theta_e
355 350 348 346 345 345 345 347 348 348 349 349 350 349 348 349 349 350 350 350 350 348 346 345 345 344 343 341 339 340 339 341
356 353 349 348 348 344 344 345 346 347 348 347 346 347 347 348 348 348 347 348 348 346 344 344 344 342 341 339 338 339 339 339
358 353 351 349 347 346 344 346 346 345 347 346 343 350 348 348 347 345 347 343 345 344 343 342 341 341 340 339 338 339 337 337
353 352 351 352 347 347 346 346 347 349 350 349 350 350 350 348 345 342 343 341 342 342 341 340 340 341 338 338 339 340 337 336
350 350 348 352 349 349 345 345 344 346 348 349 350 349 349 345 345 344 345 341 343 341 340 341 340 340 340 339 339 338 336 337
348 349 347 347 351 350 347 345 345 344 345 348 347 347 346 344 345 345 345 344 344 343 341 340 339 339 339 338 337 335 336 337
339 348 347 346 347 346 347 345 345 346 346 347 347 345 345 346 344 345 344 345 343 342 341 339 338 339 340 339 338 337 338 336
322 327 346 346 345 343 346 346 347 347 346 347 348 346 345 344 344 344 343 343 344 342 341 339 338 339 338 338 336 336 337 336
324 323 326 336 343 343 345 345 345 345 344 348 347 347 346 345 344 342 343 343 343 341 342 340 339 339 338 337 338 338 337 336
319 322 322 324 327 341 341 343 343 343 345 345 346 347 348 344 342 343 344 342 342 341 340 339 337 337 336 336 336 338 336 336
316 319 320 323 324 324 328 341 341 343 344 344 346 345 345 346 343 342 343 343 341 341 340 339 337 336 336 337 337 335 334 336
314 315 317 319 320 323 321 322 340 342 342 341 344 345 343 342 344 341 341 341 340 340 339 338 338 336 335 335 334 334 335 333
310 311 313 314 314 316 318 318 324 338 341 342 342 342 343 342 342 342 340 338 339 340 338 336 336 336 333 331 333 333 333 333
306 308 309 310 311 313 314 315 318 321 336 341 342 342 343 343 342 340 340 337 337 340 339 335 335 336 330 328 324 327 331 332
303 305 306 307 308 309 312 314 316 317 320 328 340 341 341 344 342 340 340 339 337 338 337 336 332 334 333 326 320 317 322 329
301 301 302 303 306 306 307 308 309 314 317 322 335 340 341 342 343 342 341 341 338 337 337 335 334 331 333 333 329 325 316 317
297 298 297 299 301 303 303 304 307 312 315 318 322 329 337 340 339 341 341 340 340 337 335 334 335 332 332 330 330 329 327 321
293 293 294 295 296 298 299 300 301 304 308 312 316 323 331 336 337 338 340 339 336 337 334 334 333 332 332 331 329 327 325 323
290 290 289 291 292 294 296 297 298 300 302 307 312 316 323 330 334 336 339 339 337 337 334 333 333 331 331 330 330 329 330 327
287 287 287 288 290 291 293 294 296 298 300 304 309 315 320 327 331 333 337 337 338 337 336 334 333 331 330 330 330 330 330 328

GFSFLT2_sfc_thetae_123.txt.gz
Theta_e
344 345 347 346 346 345 345 346 347 347 348 348 349 348 347 348 349 349 349 349 348 347 345 344 344 343 342 341 338 339 337 337
345 344 344 342 343 343 344 345 345 345 346 346 345 346 346 346 346 347 348 347 347 345 343 343 343 342 341 339 337 338 337 337
346 344 344 342 342 344 344 345 345 344 345 345 342 347 346 346 345 345 345 344 344 343 342 341 341 340 340 338 337 337 337 337
345 345 343 342 345 341 341 344 345 345 346 346 345 345 345 346 344 342 342 341 342 341 340 339 339 337 336 338 336 337 335 336
345 345 344 346 343 341 341 341 342 344 344 344 345 346 345 345 344 343 342 340 340 340 339 338 338 337 337 335 336 336 334 335
344 344 343 342 343 343 340 341 340 342 343 345 345 344 343 342 342 341 341 341 339 339 337 337 337 337 337 336 336 334 333 334
339 341 341 342 343 340 342 341 340 341 341 345 345 342 340 340 340 341 342 341 341 339 338 337 337 336 336 335 335 333 335 336
315 318 326 337 337 336 337 340 342 340 342 343 345 343 340 341 337 341 341 341 341 340 338 336 335 335 335 335 332 333 334 334
313 315 317 317 320 328 336 338 340 339 342 343 344 344 341 341 340 339 341 341 341 340 339 337 335 335 334 334 334 333 333 335
311 313 312 312 313 317 322 328 334 338 340 341 344 344 343 340 341 338 341 340 340 338 338 336 335 334 332 335 333 334 334 333
306 308 308 309 311 313 315 318 325 333 338 340 341 342 343 340 341 340 338 339 338 338 337 337 334 333 333 334 332 332 332 333
303 305 307 307 308 309 311 313 315 320 332 337 338 340 342 341 339 336 338 336 336 337 335 336 335 333 334 333 332 332 332 331
300 301 303 304 304 304 305 306 309 312 317 322 337 338 340 339 340 336 336 336 336 335 335 334 333 334 329 325 327 331 331 331
297 297 298 299 301 302 303 304 307 310 314 317 320 329 338 339 337 337 339 336 334 335 335 333 333 334 327 325 321 324 329 331
293 293 294 295 297 298 300 303 304 306 309 312 316 322 332 337 337 337 337 337 333 335 336 334 330 332 330 323 316 315 320 325
290 291 291 293 294 293 293 295 297 302 304 308 310 315 320 329 337 337 336 337 336 332 337 336 332 329 330 330 323 321 316 314
288 289 290 290 290 291 291 291 296 299 301 301 304 309 315 321 328 335 337 336 337 335 333 335 333 331 330 329 326 321 322 317
286 287 287 288 289 289 289 289 292 294 296 297 299 303 308 315 321 328 334 336 335 336 336 335 334 331 332 331 329 325 322 318
286 286 286 287 287 287 288 289 291 292 293 296 297 300 303 309 317 321 329 332 335 336 334 333 331 329 330 331 331 329 328 325
285 286 286 286 286 286 287 289 290 291 293 295 296 298 301 305 309 315 324 329 331 333 333 330 325 326 329 331 330 330 329 328

GFSFLT2_sfc_thetae_126.txt.gz
Theta_e
343 344 346 344 344 344 344 345 345 346 346 347 348 347 346 347 348 348 349 348 348 347 345 343 344 343 342 339 337 337 331 330
341 341 343 343 344 342 343 343 343 344 345 345 344 344 345 345 345 347 347 347 347 345 343 342 342 341 340 337 336 337 335 335
340 340 341 341 341 344 343 344 343 343 344 343 341 346 345 345 344 343 345 344 344 343 341 341 340 339 339 337 336 336 334 335
342 340 340 340 344 341 341 344 346 346 345 344 346 345 344 345 343 341 341 341 341 340 340 339 338 337 336 338 335 335 335 334
341 341 340 339 340 339 339 340 343 342 344 345 344 345 343 343 342 342 342 340 342 340 338 338 337 335 334 334 334 335 334 333
328 330 337 338 341 338 338 339 339 341 342 343 342 343 343 342 341 341 341 341 340 340 338 338 336 336 335 334 334 333 332 333
314 317 317 321 325 331 339 338 337 339 342 343 344 342 342 342 341 340 341 341 339 338 337 336 335 335 335 335 334 332 332 333
311 311 312 314 314 316 321 330 337 338 339 343 342 343 342 342 341 340 340 340 340 339 337 336 335 334 334 334 334 332 333 333
307 308 308 308 309 313 315 318 323 330 339 341 342 342 341 340 339 339 340 340 339 338 337 335 333 333 333 333 333 332 333 333
303 307 306 306 307 308 310 313 316 319 325 331 338 341 340 337 339 338 340 340 339 338 337 335 333 331 331 332 332 332 332 333
299 301 300 302 304 305 306 307 309 312 314 319 324 333 339 337 339 339 337 338 339 337 336 335 333 331 331 331 331 331 331 332
296 297 296 298 299 301 302 303 305 307 309 314 317 320 325 335 338 336 335 336 335 337 335 336 334 333 332 331 329 330 331 330
292 292 293 294 295 294 296 297 300 303 306 309 314 319 321 323 335 329 334 336 336 335 335 333 333 333 328 323 324 327 329 330
290 290 290 291 292 293 294 295 298 300 303 306 309 312 314 317 320 333 330 334 334 332 332 332 333 332 327 324 318 322 326 329
288 288 288 290 291 290 291 292 293 295 298 300 304 306 307 311 314 319 331 327 326 332 333 332 328 332 331 322 319 319 320 324
287 287 287 289 289 288 288 287 287 290 293 297 299 302 304 307 311 316 321 330 329 331 334 333 331 327 330 331 323 320 317 315
285 286 287 287 288 287 287 286 288 289 291 293 295 298 300 303 307 311 316 323 330 331 332 331 332 330 329 327 323 319 318 315
286 286 286 287 286 286 286 285 285 286 288 289 292 295 297 300 304 309 316 319 321 329 331 332 331 331 332 330 327 323 319 317
286 286 286 286 286 286 286 286 286 286 287 289 290 292 294 297 301 303 308 312 318 324 329 330 331 330 330 329 329 328 326 321
286 286 285 285 285 286 287 288 289 289 290 291 292 293 295 297 298 300 302 307 310 315 325 328 329 329 328 322 321 321 328 325